Time,TemperatureF,DewpointF,PressureIn,WindDirection,WindDirectionDegrees,WindSpeedMPH,WindSpeedGustMPH,Humidity,HourlyPrecipIn,Conditions,Clouds,dailyrainin,SoftwareType,DateUTC
2013-01-10 00:23:00,55.9,54.8,30.35,NNE,26,4.0,7.0,96,0.00,,---,0.00,VWS V14.01,2013-01-10 06:23:00,
2013-01-10 00:26:00,55.9,54.8,30.34,ENE,61,7.0,7.0,96,0.00,,---,0.00,VWS V14.01,2013-01-10 06:26:00,
2013-01-10 00:28:00,55.9,54.8,30.34,ENE,61,1.0,7.0,96,0.00,,---,0.00,VWS V14.01,2013-01-10 06:28:00,
2013-01-10 00:29:00,55.9,54.8,30.35,NNE,24,3.0,7.0,96,0.00,,---,0.00,VWS V14.01,2013-01-10 06:29:00,
2013-01-10 00:31:00,55.9,54.8,30.35,NNE,33,2.0,4.0,96,0.00,,---,0.00,VWS V14.01,2013-01-10 06:31:00,
2013-01-10 00:33:00,55.9,54.8,30.35,ENE,58,2.0,4.0,96,0.00,,---,0.00,VWS V14.01,2013-01-10 06:33:00,
2013-01-10 00:34:00,55.9,54.8,30.35,NNE,13,4.0,4.0,96,0.00,,---,0.00,VWS V14.01,2013-01-10 06:34:00,
2013-01-10 00:37:00,55.9,54.8,30.35,ENE,57,3.0,5.0,96,0.00,,---,0.00,VWS V14.01,2013-01-10 06:37:00,
2013-01-10 00:38:00,55.9,54.8,30.35,ENE,57,0.0,5.0,96,0.00,,---,0.00,VWS V14.01,2013-01-10 06:38:00,
2013-01-10 00:39:00,55.9,54.8,30.35,NE,48,3.0,5.0,96,0.00,,---,0.00,VWS V14.01,2013-01-10 06:39:00,
2013-01-10 00:43:00,55.9,54.8,30.35,ENE,59,4.0,5.0,96,0.00,,---,0.00,VWS V14.01,2013-01-10 06:43:00,
2013-01-10 00:44:00,55.9,54.8,30.34,NNE,32,2.0,5.0,96,0.00,,---,0.00,VWS V14.01,2013-01-10 06:44:00,
2013-01-10 00:48:00,55.9,54.8,30.35,ENE,59,0.0,5.0,96,0.00,,---,0.00,VWS V14.01,2013-01-10 06:48:00,
2013-01-10 00:49:00,55.9,54.8,30.35,NNE,32,2.0,5.0,96,0.00,,---,0.00,VWS V14.01,2013-01-10 06:49:00,
2013-01-10 00:53:00,55.9,54.8,30.35,NE,34,4.0,5.0,96,0.00,,---,0.00,VWS V14.01,2013-01-10 06:53:00,
2013-01-10 00:54:00,55.9,54.8,30.35,NNE,32,2.0,5.0,96,0.00,,---,0.00,VWS V14.01,2013-01-10 06:54:00,
2013-01-10 00:58:00,56.0,54.9,30.35,NNE,29,2.0,5.0,96,0.00,,---,0.00,VWS V14.01,2013-01-10 06:58:00,
2013-01-10 00:59:00,56.0,54.9,30.35,NNE,26,5.0,5.0,96,0.00,,---,0.00,VWS V14.01,2013-01-10 06:59:00,
2013-01-10 01:00:00,56.0,54.9,30.35,NE,42,2.0,4.0,96,0.00,,---,0.00,VWS V14.01,2013-01-10 07:00:00,
2013-01-10 01:03:00,56.1,55.0,30.35,NNE,29,2.0,5.0,96,0.00,,---,0.00,VWS V14.01,2013-01-10 07:03:00,
2013-01-10 01:04:00,56.1,55.0,30.35,NNE,29,3.0,5.0,96,0.00,,---,0.00,VWS V14.01,2013-01-10 07:04:00,
2013-01-10 01:05:00,56.1,55.0,30.35,NNE,30,2.0,5.0,96,0.00,,---,0.00,VWS V14.01,2013-01-10 07:05:00,
2013-01-10 01:08:00,56.2,55.1,30.35,NNE,32,3.0,5.0,96,0.00,,---,0.00,VWS V14.01,2013-01-10 07:08:00,
2013-01-10 01:09:00,56.2,55.1,30.34,NE,36,3.0,5.0,96,0.00,,---,0.00,VWS V14.01,2013-01-10 07:09:00,
2013-01-10 01:10:00,56.2,55.1,30.34,NE,54,2.0,5.0,96,0.00,,---,0.00,VWS V14.01,2013-01-10 07:10:00,
2013-01-10 01:13:00,56.2,55.1,30.34,NE,40,3.0,6.0,96,0.00,,---,0.00,VWS V14.01,2013-01-10 07:13:00,
2013-01-10 01:14:00,56.2,55.1,30.34,NE,40,3.0,6.0,96,0.00,,---,0.00,VWS V14.01,2013-01-10 07:14:00,
2013-01-10 01:15:00,56.2,55.1,30.34,NE,42,2.0,7.0,96,0.00,,---,0.00,VWS V14.01,2013-01-10 07:15:00,
2013-01-10 01:18:00,56.2,55.1,30.34,North,355,2.0,7.0,96,0.00,,---,0.00,VWS V14.01,2013-01-10 07:18:00,
2013-01-10 01:19:00,56.3,55.2,30.34,North,355,1.0,7.0,96,0.00,,---,0.00,VWS V14.01,2013-01-10 07:19:00,
2013-01-10 01:20:00,56.2,55.1,30.34,North,355,2.0,7.0,96,0.00,,---,0.00,VWS V14.01,2013-01-10 07:20:00,
2013-01-10 01:21:00,56.2,55.1,30.34,North,355,0.0,7.0,96,0.00,,---,0.00,VWS V14.01,2013-01-10 07:21:00,
2013-01-10 01:23:00,56.2,55.1,30.34,North,355,0.0,7.0,96,0.00,,---,0.00,VWS V14.01,2013-01-10 07:23:00,
2013-01-10 01:24:00,56.2,55.1,30.34,North,355,0.0,7.0,96,0.00,,---,0.00,VWS V14.01,2013-01-10 07:24:00,
2013-01-10 01:25:00,56.1,55.0,30.34,North,355,0.0,7.0,96,0.00,,---,0.00,VWS V14.01,2013-01-10 07:25:00,
2013-01-10 01:26:00,56.1,55.0,30.35,North,355,2.0,7.0,96,0.00,,---,0.00,VWS V14.01,2013-01-10 07:26:00,
2013-01-10 01:29:00,56.0,54.9,30.35,North,355,1.0,7.0,96,0.00,,---,0.00,VWS V14.01,2013-01-10 07:29:00,
2013-01-10 01:30:00,56.0,54.9,30.35,North,355,0.0,0.0,96,0.00,,---,0.00,VWS V14.01,2013-01-10 07:30:00,
2013-01-10 01:32:00,56.0,54.9,30.35,North,355,0.0,0.0,96,0.00,,---,0.00,VWS V14.01,2013-01-10 07:32:00,
2013-01-10 01:34:00,55.9,54.8,30.35,North,355,1.0,1.0,96,0.00,,---,0.00,VWS V14.01,2013-01-10 07:34:00,
2013-01-10 01:35:00,55.9,54.8,30.35,NNE,29,2.0,2.0,96,0.00,,---,0.00,VWS V14.01,2013-01-10 07:35:00,
2013-01-10 01:37:00,55.9,54.8,30.35,NE,44,0.0,2.0,96,0.00,,---,0.00,VWS V14.01,2013-01-10 07:37:00,
2013-01-10 01:39:00,56.0,54.9,30.35,ENE,58,2.0,4.0,96,0.00,,---,0.00,VWS V14.01,2013-01-10 07:39:00,
2013-01-10 01:40:00,56.0,54.9,30.35,ENE,59,2.0,4.0,96,0.00,,---,0.00,VWS V14.01,2013-01-10 07:40:00,
2013-01-10 01:42:00,56.0,54.9,30.35,ENE,65,3.0,4.0,96,0.00,,---,0.00,VWS V14.01,2013-01-10 07:42:00,
2013-01-10 01:44:00,56.1,55.0,30.35,ENE,69,2.0,4.0,96,0.00,,---,0.00,VWS V14.01,2013-01-10 07:44:00,
2013-01-10 01:45:00,56.2,55.4,30.35,ENE,69,1.0,4.0,97,0.00,,---,0.00,VWS V14.01,2013-01-10 07:45:00,
2013-01-10 01:47:00,56.2,55.4,30.35,ENE,69,1.0,4.0,97,0.00,,---,0.00,VWS V14.01,2013-01-10 07:47:00,
2013-01-10 01:49:00,56.3,55.5,30.35,ENE,69,2.0,4.0,97,0.00,,---,0.00,VWS V14.01,2013-01-10 07:49:00,
2013-01-10 01:51:00,56.3,55.5,30.35,ENE,65,2.0,4.0,97,0.00,,---,0.00,VWS V14.01,2013-01-10 07:51:00,
2013-01-10 01:52:00,56.4,55.6,30.35,NE,51,3.0,4.0,97,0.00,,---,0.00,VWS V14.01,2013-01-10 07:52:00,
2013-01-10 01:54:00,56.4,55.6,30.35,ENE,62,3.0,4.0,97,0.00,,---,0.00,VWS V14.01,2013-01-10 07:54:00,
2013-01-10 01:56:00,56.4,55.6,30.35,NE,51,1.0,4.0,97,0.00,,---,0.00,VWS V14.01,2013-01-10 07:56:00,
2013-01-10 01:57:00,56.4,55.6,30.34,NE,49,5.0,5.0,97,0.00,,---,0.00,VWS V14.01,2013-01-10 07:57:00,
2013-01-10 01:59:00,56.5,55.4,30.34,ENE,64,2.0,2.0,96,0.00,,---,0.00,VWS V14.01,2013-01-10 07:59:00,
2013-01-10 02:01:00,56.5,55.4,30.34,NE,44,0.0,5.0,96,0.00,,---,0.00,VWS V14.01,2013-01-10 08:01:00,
2013-01-10 02:03:00,56.5,55.4,30.34,NE,41,3.0,5.0,96,0.00,,---,0.00,VWS V14.01,2013-01-10 08:03:00,
2013-01-10 02:04:00,56.5,55.4,30.34,NE,40,1.0,5.0,96,0.00,,---,0.00,VWS V14.01,2013-01-10 08:04:00,
2013-01-10 02:05:00,56.5,55.4,30.34,NNE,30,6.0,6.0,96,0.00,,---,0.00,VWS V14.01,2013-01-10 08:05:00,
2013-01-10 02:06:00,56.4,55.3,30.34,NE,39,2.0,6.0,96,0.00,,---,0.00,VWS V14.01,2013-01-10 08:06:00,
2013-01-10 02:08:00,56.4,55.3,30.34,NE,43,0.0,6.0,96,0.00,,---,0.00,VWS V14.01,2013-01-10 08:08:00,
2013-01-10 02:10:00,56.4,55.3,30.34,NE,38,1.0,6.0,96,0.00,,---,0.00,VWS V14.01,2013-01-10 08:10:00,
2013-01-10 02:11:00,56.4,55.3,30.34,NE,38,4.0,6.0,96,0.00,,---,0.00,VWS V14.01,2013-01-10 08:11:00,
2013-01-10 02:13:00,56.4,55.3,30.34,NE,39,2.0,6.0,96,0.00,,---,0.00,VWS V14.01,2013-01-10 08:13:00,
2013-01-10 02:15:00,56.4,55.3,30.34,NE,38,2.0,6.0,96,0.00,,---,0.00,VWS V14.01,2013-01-10 08:15:00,
2013-01-10 02:16:00,56.4,55.3,30.34,NE,44,0.0,6.0,96,0.00,,---,0.00,VWS V14.01,2013-01-10 08:16:00,
2013-01-10 02:18:00,56.4,55.3,30.34,NE,34,3.0,6.0,96,0.00,,---,0.00,VWS V14.01,2013-01-10 08:18:00,
2013-01-10 02:20:00,56.4,55.3,30.34,NE,43,3.0,6.0,96,0.00,,---,0.00,VWS V14.01,2013-01-10 08:20:00,
2013-01-10 02:21:00,56.4,55.3,30.34,NE,53,3.0,6.0,96,0.00,,---,0.00,VWS V14.01,2013-01-10 08:21:00,
2013-01-10 02:23:00,56.3,55.2,30.34,NE,55,2.0,6.0,96,0.00,,---,0.00,VWS V14.01,2013-01-10 08:23:00,
2013-01-10 02:25:00,56.3,55.2,30.34,ENE,57,0.0,6.0,96,0.00,,---,0.00,VWS V14.01,2013-01-10 08:25:00,
2013-01-10 02:26:00,56.3,55.2,30.34,NE,38,1.0,6.0,96,0.00,,---,0.00,VWS V14.01,2013-01-10 08:26:00,
2013-01-10 02:29:00,56.3,55.2,30.34,ENE,61,2.0,6.0,96,0.00,,---,0.00,VWS V14.01,2013-01-10 08:29:00,
2013-01-10 02:30:00,56.3,55.2,30.33,NNE,30,3.0,4.0,96,0.00,,---,0.00,VWS V14.01,2013-01-10 08:30:00,
2013-01-10 02:31:00,56.3,55.2,30.33,NE,55,2.0,4.0,96,0.00,,---,0.00,VWS V14.01,2013-01-10 08:31:00,
2013-01-10 02:34:00,56.3,55.2,30.33,NE,43,5.0,5.0,96,0.00,,---,0.00,VWS V14.01,2013-01-10 08:34:00,
2013-01-10 02:35:00,56.3,55.2,30.34,NNE,17,5.0,6.0,96,0.00,,---,0.00,VWS V14.01,2013-01-10 08:35:00,
2013-01-10 02:36:00,56.3,55.2,30.34,NE,42,4.0,6.0,96,0.00,,---,0.00,VWS V14.01,2013-01-10 08:36:00,
2013-01-10 02:37:00,56.3,55.2,30.33,NE,55,2.0,6.0,96,0.00,,---,0.00,VWS V14.01,2013-01-10 08:37:00,
2013-01-10 02:39:00,56.3,55.2,30.33,NE,49,4.0,6.0,96,0.00,,---,0.00,VWS V14.01,2013-01-10 08:39:00,
2013-01-10 02:40:00,56.3,55.2,30.33,NE,40,4.0,6.0,96,0.00,,---,0.00,VWS V14.01,2013-01-10 08:40:00,
2013-01-10 02:41:00,56.3,55.2,30.33,NE,44,3.0,6.0,96,0.00,,---,0.00,VWS V14.01,2013-01-10 08:41:00,
2013-01-10 02:42:00,56.2,55.1,30.33,NE,34,2.0,6.0,96,0.00,,---,0.00,VWS V14.01,2013-01-10 08:42:00,
2013-01-10 02:44:00,56.3,55.2,30.33,NE,38,2.0,6.0,96,0.00,,---,0.00,VWS V14.01,2013-01-10 08:44:00,
2013-01-10 02:45:00,56.3,55.2,30.33,NE,48,3.0,6.0,96,0.00,,---,0.00,VWS V14.01,2013-01-10 08:45:00,
2013-01-10 02:46:00,56.3,55.2,30.33,ENE,58,4.0,6.0,96,0.00,,---,0.00,VWS V14.01,2013-01-10 08:46:00,
2013-01-10 02:47:00,56.3,55.2,30.33,NE,49,0.0,6.0,96,0.00,,---,0.00,VWS V14.01,2013-01-10 08:47:00,
2013-01-10 02:49:00,56.3,55.2,30.33,NE,51,2.0,6.0,96,0.00,,---,0.00,VWS V14.01,2013-01-10 08:49:00,
2013-01-10 02:50:00,56.3,55.2,30.33,NE,54,0.0,6.0,96,0.00,,---,0.00,VWS V14.01,2013-01-10 08:50:00,
2013-01-10 02:51:00,56.3,55.2,30.33,NE,54,3.0,6.0,96,0.00,,---,0.00,VWS V14.01,2013-01-10 08:51:00,
2013-01-10 02:52:00,56.3,55.2,30.33,NE,51,3.0,6.0,96,0.00,,---,0.00,VWS V14.01,2013-01-10 08:52:00,
2013-01-10 02:54:00,56.3,55.2,30.33,NE,54,0.0,6.0,96,0.00,,---,0.00,VWS V14.01,2013-01-10 08:54:00,
2013-01-10 02:55:00,56.3,55.2,30.33,NE,54,3.0,6.0,96,0.00,,---,0.00,VWS V14.01,2013-01-10 08:55:00,
2013-01-10 02:56:00,56.3,55.2,30.33,NE,54,3.0,6.0,96,0.00,,---,0.00,VWS V14.01,2013-01-10 08:56:00,
2013-01-10 02:57:00,56.3,55.2,30.33,ENE,67,3.0,6.0,96,0.00,,---,0.00,VWS V14.01,2013-01-10 08:57:00,
2013-01-10 02:59:00,56.3,55.2,30.33,ENE,67,0.0,6.0,96,0.00,,---,0.00,VWS V14.01,2013-01-10 08:59:00,
2013-01-10 03:01:00,56.2,55.1,30.33,ENE,70,3.0,5.0,96,0.00,,---,0.00,VWS V14.01,2013-01-10 09:01:00,
2013-01-10 03:03:00,56.2,55.1,30.33,ENE,73,2.0,5.0,96,0.00,,---,0.00,VWS V14.01,2013-01-10 09:03:00,
2013-01-10 03:04:00,56.2,55.1,30.32,East,83,3.0,5.0,96,0.00,,---,0.00,VWS V14.01,2013-01-10 09:04:00,
2013-01-10 03:06:00,56.2,55.1,30.32,East,93,3.0,5.0,96,0.00,,---,0.00,VWS V14.01,2013-01-10 09:06:00,
2013-01-10 03:07:00,56.2,55.1,30.32,NE,50,4.0,5.0,96,0.00,,---,0.00,VWS V14.01,2013-01-10 09:07:00,
2013-01-10 03:08:00,56.2,55.1,30.32,ENE,59,0.0,5.0,96,0.00,,---,0.00,VWS V14.01,2013-01-10 09:08:00,
2013-01-10 03:09:00,56.2,55.1,30.32,ENE,69,0.0,5.0,96,0.00,,---,0.00,VWS V14.01,2013-01-10 09:09:00,
2013-01-10 03:11:00,56.2,55.1,30.32,ENE,60,2.0,8.0,96,0.00,,---,0.00,VWS V14.01,2013-01-10 09:11:00,
2013-01-10 03:12:00,56.2,55.1,30.32,East,81,1.0,8.0,96,0.00,,---,0.00,VWS V14.01,2013-01-10 09:12:00,
2013-01-10 03:13:00,56.2,55.1,30.32,ENE,59,4.0,8.0,96,0.00,,---,0.00,VWS V14.01,2013-01-10 09:13:00,
2013-01-10 03:14:00,56.1,55.0,30.32,East,81,5.0,8.0,96,0.00,,---,0.00,VWS V14.01,2013-01-10 09:14:00,
2013-01-10 03:16:00,56.1,55.0,30.32,East,82,3.0,8.0,96,0.00,,---,0.00,VWS V14.01,2013-01-10 09:16:00,
2013-01-10 03:17:00,56.1,55.0,30.32,ENE,68,3.0,8.0,96,0.00,,---,0.00,VWS V14.01,2013-01-10 09:17:00,
2013-01-10 03:18:00,56.2,55.1,30.32,East,79,1.0,8.0,96,0.00,,---,0.00,VWS V14.01,2013-01-10 09:18:00,
2013-01-10 03:19:00,56.1,55.0,30.32,NE,49,3.0,8.0,96,0.00,,---,0.00,VWS V14.01,2013-01-10 09:19:00,
2013-01-10 03:21:00,56.1,55.0,30.32,NE,43,0.0,8.0,96,0.00,,---,0.00,VWS V14.01,2013-01-10 09:21:00,
2013-01-10 03:22:00,56.2,55.1,30.32,ENE,64,1.0,8.0,96,0.00,,---,0.00,VWS V14.01,2013-01-10 09:22:00,
2013-01-10 03:24:00,56.2,55.1,30.32,ENE,62,1.0,8.0,96,0.00,,---,0.00,VWS V14.01,2013-01-10 09:24:00,
2013-01-10 03:25:00,56.1,55.0,30.32,ENE,62,0.0,8.0,96,0.00,,---,0.00,VWS V14.01,2013-01-10 09:25:00,
2013-01-10 03:26:00,56.1,55.0,30.32,ENE,62,1.0,8.0,96,0.00,,---,0.00,VWS V14.01,2013-01-10 09:26:00,
2013-01-10 03:27:00,56.2,55.1,30.32,NE,52,1.0,8.0,96,0.00,,---,0.00,VWS V14.01,2013-01-10 09:27:00,
2013-01-10 03:29:00,56.2,55.1,30.32,ENE,61,5.0,8.0,96,0.00,,---,0.00,VWS V14.01,2013-01-10 09:29:00,
2013-01-10 03:30:00,56.2,55.1,30.32,NE,43,3.0,4.0,96,0.00,,---,0.00,VWS V14.01,2013-01-10 09:30:00,
2013-01-10 03:31:00,56.1,55.0,30.32,NE,55,3.0,4.0,96,0.00,,---,0.00,VWS V14.01,2013-01-10 09:31:00,
2013-01-10 03:32:00,56.1,55.0,30.32,NE,53,4.0,5.0,96,0.00,,---,0.00,VWS V14.01,2013-01-10 09:32:00,
2013-01-10 03:34:00,56.2,55.1,30.32,NNE,31,4.0,5.0,96,0.00,,---,0.00,VWS V14.01,2013-01-10 09:34:00,
2013-01-10 03:35:00,56.1,55.0,30.32,ENE,62,2.0,5.0,96,0.00,,---,0.00,VWS V14.01,2013-01-10 09:35:00,
2013-01-10 03:36:00,56.1,55.0,30.32,NE,46,4.0,5.0,96,0.00,,---,0.00,VWS V14.01,2013-01-10 09:36:00,
2013-01-10 03:37:00,56.1,55.0,30.31,NE,34,2.0,5.0,96,0.00,,---,0.00,VWS V14.01,2013-01-10 09:37:00,
2013-01-10 03:39:00,56.1,55.0,30.31,NE,40,3.0,5.0,96,0.00,,---,0.00,VWS V14.01,2013-01-10 09:39:00,
2013-01-10 03:40:00,56.1,55.0,30.31,NE,44,2.0,5.0,96,0.00,,---,0.00,VWS V14.01,2013-01-10 09:40:00,
2013-01-10 03:41:00,56.1,55.0,30.31,NE,35,6.0,6.0,96,0.01,,---,0.01,VWS V14.01,2013-01-10 09:41:00,
2013-01-10 03:42:00,56.1,55.0,30.31,NE,41,4.0,6.0,96,0.01,,---,0.01,VWS V14.01,2013-01-10 09:42:00,
2013-01-10 03:44:00,56.1,55.0,30.31,NNE,28,4.0,6.0,96,0.01,,---,0.01,VWS V14.01,2013-01-10 09:44:00,
2013-01-10 03:46:00,56.1,55.0,30.31,NNE,31,4.0,6.0,96,0.01,,---,0.01,VWS V14.01,2013-01-10 09:46:00,
2013-01-10 03:47:00,56.1,55.0,30.31,ENE,57,2.0,6.0,96,0.01,,---,0.01,VWS V14.01,2013-01-10 09:47:00,
2013-01-10 03:50:00,56.1,55.0,30.31,NNE,22,3.0,6.0,96,0.01,,---,0.01,VWS V14.01,2013-01-10 09:50:00,
2013-01-10 03:51:00,56.1,55.0,30.31,NNE,22,1.0,6.0,96,0.01,,---,0.01,VWS V14.01,2013-01-10 09:51:00,
2013-01-10 03:52:00,56.1,55.0,30.31,NNE,22,1.0,6.0,96,0.01,,---,0.01,VWS V14.01,2013-01-10 09:52:00,
2013-01-10 03:53:00,56.1,55.0,30.31,NNE,22,2.0,6.0,96,0.01,,---,0.01,VWS V14.01,2013-01-10 09:53:00,
2013-01-10 03:56:00,56.1,55.0,30.31,NNE,30,3.0,6.0,96,0.02,,---,0.02,VWS V14.01,2013-01-10 09:56:00,
2013-01-10 03:57:00,56.1,55.0,30.31,NE,44,3.0,6.0,96,0.02,,---,0.02,VWS V14.01,2013-01-10 09:57:00,
2013-01-10 03:58:00,56.1,55.0,30.31,NE,40,2.0,6.0,96,0.02,,---,0.02,VWS V14.01,2013-01-10 09:58:00,
2013-01-10 04:01:00,56.1,55.0,30.31,NNE,31,5.0,5.0,96,0.02,,---,0.02,VWS V14.01,2013-01-10 10:01:00,
2013-01-10 04:02:00,56.1,55.0,30.31,NNE,19,4.0,5.0,96,0.02,,---,0.02,VWS V14.01,2013-01-10 10:02:00,
2013-01-10 04:03:00,56.1,55.0,30.31,NNE,19,2.0,5.0,96,0.02,,---,0.02,VWS V14.01,2013-01-10 10:03:00,
2013-01-10 04:06:00,56.1,55.0,30.31,NNE,19,2.0,5.0,96,0.02,,---,0.02,VWS V14.01,2013-01-10 10:06:00,
2013-01-10 04:07:00,56.0,54.9,30.31,NNE,19,2.0,5.0,96,0.02,,---,0.02,VWS V14.01,2013-01-10 10:07:00,
2013-01-10 04:08:00,56.0,54.9,30.31,NNE,19,3.0,5.0,96,0.02,,---,0.02,VWS V14.01,2013-01-10 10:08:00,
2013-01-10 04:11:00,56.0,54.9,30.30,NNW,336,2.0,5.0,96,0.02,,---,0.02,VWS V14.01,2013-01-10 10:11:00,
2013-01-10 04:12:00,55.9,54.8,30.30,NNW,341,2.0,5.0,96,0.02,,---,0.02,VWS V14.01,2013-01-10 10:12:00,
2013-01-10 04:13:00,55.9,54.8,30.30,NW,319,4.0,5.0,96,0.02,,---,0.02,VWS V14.01,2013-01-10 10:13:00,
2013-01-10 04:16:00,55.8,54.7,30.31,NW,313,4.0,5.0,96,0.04,,---,0.04,VWS V14.01,2013-01-10 10:16:00,
2013-01-10 04:17:00,55.7,54.6,30.31,North,360,3.0,5.0,96,0.09,,---,0.09,VWS V14.01,2013-01-10 10:17:00,
2013-01-10 04:18:00,55.7,54.6,30.31,NNE,28,4.0,5.0,96,0.10,,---,0.10,VWS V14.01,2013-01-10 10:18:00,
2013-01-10 04:21:00,55.6,54.5,30.30,ENE,67,4.0,8.0,96,0.14,,---,0.14,VWS V14.01,2013-01-10 10:21:00,
2013-01-10 04:23:00,55.5,54.4,30.30,ENE,68,4.0,8.0,96,0.16,,---,0.16,VWS V14.01,2013-01-10 10:23:00,
2013-01-10 04:26:00,55.5,54.4,30.30,NNE,27,3.0,8.0,96,0.16,,---,0.16,VWS V14.01,2013-01-10 10:26:00,
2013-01-10 04:28:00,55.5,54.4,30.30,NE,44,1.0,8.0,96,0.16,,---,0.16,VWS V14.01,2013-01-10 10:28:00,
2013-01-10 04:31:00,55.6,54.8,30.30,NNE,16,4.0,5.0,97,0.16,,---,0.16,VWS V14.01,2013-01-10 10:31:00,
2013-01-10 04:33:00,55.6,54.8,30.30,NNE,25,2.0,5.0,97,0.16,,---,0.16,VWS V14.01,2013-01-10 10:33:00,
2013-01-10 04:34:00,55.6,54.8,30.30,NNE,19,5.0,5.0,97,0.16,,---,0.16,VWS V14.01,2013-01-10 10:34:00,
2013-01-10 04:36:00,55.6,54.8,30.30,NNE,19,2.0,6.0,97,0.16,,---,0.16,VWS V14.01,2013-01-10 10:36:00,
2013-01-10 04:37:00,55.6,54.8,30.30,NNE,19,2.0,6.0,97,0.16,,---,0.16,VWS V14.01,2013-01-10 10:37:00,
2013-01-10 04:38:00,55.6,54.8,30.30,NNE,26,2.0,6.0,97,0.16,,---,0.16,VWS V14.01,2013-01-10 10:38:00,
2013-01-10 04:39:00,55.6,54.8,30.30,NE,40,1.0,6.0,97,0.16,,---,0.16,VWS V14.01,2013-01-10 10:39:00,
2013-01-10 04:41:00,55.6,54.8,30.30,NNE,13,3.0,6.0,97,0.16,,---,0.16,VWS V14.01,2013-01-10 10:41:00,
2013-01-10 04:42:00,55.6,54.8,30.30,NNE,13,2.0,6.0,97,0.16,,---,0.16,VWS V14.01,2013-01-10 10:42:00,
2013-01-10 04:43:00,55.6,54.8,30.30,NNE,26,3.0,6.0,97,0.16,,---,0.16,VWS V14.01,2013-01-10 10:43:00,
2013-01-10 04:44:00,55.6,54.8,30.30,NNE,33,3.0,6.0,97,0.16,,---,0.16,VWS V14.01,2013-01-10 10:44:00,
2013-01-10 04:46:00,55.5,54.7,30.30,NE,54,5.0,7.0,97,0.16,,---,0.16,VWS V14.01,2013-01-10 10:46:00,
2013-01-10 04:47:00,55.5,54.7,30.30,NE,56,5.0,7.0,97,0.16,,---,0.16,VWS V14.01,2013-01-10 10:47:00,
2013-01-10 04:48:00,55.5,54.7,30.30,NE,43,2.0,7.0,97,0.16,,---,0.16,VWS V14.01,2013-01-10 10:48:00,
2013-01-10 04:49:00,55.5,54.7,30.30,NE,42,5.0,7.0,97,0.16,,---,0.16,VWS V14.01,2013-01-10 10:49:00,
2013-01-10 04:51:00,55.5,54.4,30.30,NNE,21,2.0,7.0,96,0.16,,---,0.16,VWS V14.01,2013-01-10 10:51:00,
2013-01-10 04:52:00,55.5,54.4,30.30,NNE,24,4.0,8.0,96,0.16,,---,0.16,VWS V14.01,2013-01-10 10:52:00,
2013-01-10 04:53:00,55.4,54.3,30.30,NNE,20,2.0,8.0,96,0.16,,---,0.16,VWS V14.01,2013-01-10 10:53:00,
2013-01-10 04:54:00,55.4,54.3,30.30,NE,39,5.0,8.0,96,0.16,,---,0.16,VWS V14.01,2013-01-10 10:54:00,
2013-01-10 04:57:00,55.4,54.3,30.30,NNE,30,4.0,8.0,96,0.16,,---,0.16,VWS V14.01,2013-01-10 10:57:00,
2013-01-10 04:58:00,55.3,54.2,30.30,NE,38,4.0,8.0,96,0.16,,---,0.16,VWS V14.01,2013-01-10 10:58:00,
2013-01-10 05:00:00,55.3,54.2,30.30,NE,48,1.0,4.0,96,0.14,,---,0.16,VWS V14.01,2013-01-10 11:00:00,
2013-01-10 05:02:00,55.3,54.2,30.30,ENE,60,3.0,5.0,96,0.14,,---,0.16,VWS V14.01,2013-01-10 11:02:00,
2013-01-10 05:03:00,55.3,54.2,30.30,NNE,26,2.0,5.0,96,0.14,,---,0.16,VWS V14.01,2013-01-10 11:03:00,
2013-01-10 05:04:00,55.3,54.2,30.30,ENE,61,1.0,5.0,96,0.14,,---,0.16,VWS V14.01,2013-01-10 11:04:00,
2013-01-10 05:05:00,55.2,54.1,30.30,ENE,65,5.0,7.0,96,0.14,,---,0.16,VWS V14.01,2013-01-10 11:05:00,
2013-01-10 05:07:00,55.2,54.1,30.30,ENE,67,3.0,9.0,96,0.14,,---,0.16,VWS V14.01,2013-01-10 11:07:00,
2013-01-10 05:08:00,55.2,54.1,30.30,ENE,67,3.0,9.0,96,0.14,,---,0.16,VWS V14.01,2013-01-10 11:08:00,
2013-01-10 05:09:00,55.1,54.0,30.30,ENE,61,3.0,9.0,96,0.14,,---,0.16,VWS V14.01,2013-01-10 11:09:00,
2013-01-10 05:10:00,55.1,54.0,30.30,ENE,69,3.0,9.0,96,0.14,,---,0.16,VWS V14.01,2013-01-10 11:10:00,
2013-01-10 05:12:00,55.1,54.3,30.30,NE,48,2.0,9.0,97,0.14,,---,0.16,VWS V14.01,2013-01-10 11:12:00,
2013-01-10 05:13:00,55.1,54.3,30.30,ENE,67,5.0,9.0,97,0.14,,---,0.16,VWS V14.01,2013-01-10 11:13:00,
2013-01-10 05:14:00,55.1,54.3,30.30,ENE,66,1.0,9.0,97,0.14,,---,0.16,VWS V14.01,2013-01-10 11:14:00,
2013-01-10 05:16:00,55.1,54.3,30.30,ENE,62,3.0,9.0,97,0.14,,---,0.16,VWS V14.01,2013-01-10 11:16:00,
2013-01-10 05:17:00,55.0,54.2,30.30,ENE,70,1.0,9.0,97,0.14,,---,0.16,VWS V14.01,2013-01-10 11:17:00,
2013-01-10 05:18:00,55.0,54.2,30.30,NE,46,3.0,9.0,97,0.14,,---,0.16,VWS V14.01,2013-01-10 11:18:00,
2013-01-10 05:19:00,55.0,54.2,30.30,NE,54,2.0,9.0,97,0.14,,---,0.16,VWS V14.01,2013-01-10 11:19:00,
2013-01-10 05:21:00,55.0,54.2,30.30,ENE,61,2.0,9.0,97,0.14,,---,0.16,VWS V14.01,2013-01-10 11:21:00,
2013-01-10 05:22:00,55.0,54.2,30.30,ENE,69,3.0,9.0,97,0.14,,---,0.16,VWS V14.01,2013-01-10 11:22:00,
2013-01-10 05:23:00,55.0,54.2,30.30,NE,41,4.0,9.0,97,0.14,,---,0.16,VWS V14.01,2013-01-10 11:23:00,
2013-01-10 05:25:00,54.9,54.1,30.30,NE,41,4.0,9.0,97,0.14,,---,0.16,VWS V14.01,2013-01-10 11:25:00,
2013-01-10 05:26:00,54.9,54.1,30.30,NE,36,3.0,9.0,97,0.14,,---,0.16,VWS V14.01,2013-01-10 11:26:00,
2013-01-10 05:27:00,54.9,54.1,30.30,ENE,63,4.0,9.0,97,0.14,,---,0.16,VWS V14.01,2013-01-10 11:27:00,
2013-01-10 05:29:00,54.9,54.1,30.30,ENE,63,2.0,9.0,97,0.14,,---,0.16,VWS V14.01,2013-01-10 11:29:00,
2013-01-10 05:30:00,54.9,54.1,30.30,NNE,33,0.0,3.0,97,0.00,,---,0.16,VWS V14.01,2013-01-10 11:30:00,
2013-01-10 05:31:00,54.9,54.1,30.30,NE,44,5.0,7.0,97,0.00,,---,0.16,VWS V14.01,2013-01-10 11:31:00,
2013-01-10 05:32:00,54.9,54.1,30.30,NE,38,6.0,7.0,97,0.00,,---,0.16,VWS V14.01,2013-01-10 11:32:00,
2013-01-10 05:34:00,54.9,54.1,30.30,ENE,59,4.0,7.0,97,0.00,,---,0.16,VWS V14.01,2013-01-10 11:34:00,
2013-01-10 05:35:00,54.8,54.0,30.30,NNE,30,1.0,7.0,97,0.00,,---,0.16,VWS V14.01,2013-01-10 11:35:00,
2013-01-10 05:36:00,54.8,54.0,30.30,NNE,24,5.0,7.0,97,0.00,,---,0.16,VWS V14.01,2013-01-10 11:36:00,
2013-01-10 05:38:00,54.8,53.7,30.30,NE,46,3.0,7.0,96,0.00,,---,0.16,VWS V14.01,2013-01-10 11:38:00,
2013-01-10 05:39:00,54.8,53.7,30.30,ENE,64,2.0,7.0,96,0.00,,---,0.16,VWS V14.01,2013-01-10 11:39:00,
2013-01-10 05:40:00,54.8,53.7,30.30,NNE,21,3.0,7.0,96,0.00,,---,0.16,VWS V14.01,2013-01-10 11:40:00,
2013-01-10 05:42:00,54.8,53.7,30.30,NE,55,4.0,7.0,96,0.00,,---,0.16,VWS V14.01,2013-01-10 11:42:00,
2013-01-10 05:43:00,54.8,53.7,30.30,ENE,72,5.0,7.0,96,0.00,,---,0.16,VWS V14.01,2013-01-10 11:43:00,
2013-01-10 05:44:00,54.8,53.7,30.30,NNE,25,1.0,7.0,96,0.00,,---,0.16,VWS V14.01,2013-01-10 11:44:00,
2013-01-10 05:46:00,54.7,53.6,30.30,NE,41,2.0,7.0,96,0.00,,---,0.16,VWS V14.01,2013-01-10 11:46:00,
2013-01-10 05:47:00,54.7,53.6,30.30,East,80,3.0,7.0,96,0.00,,---,0.16,VWS V14.01,2013-01-10 11:47:00,
2013-01-10 05:48:00,54.7,53.6,30.30,NE,52,6.0,8.0,96,0.00,,---,0.16,VWS V14.01,2013-01-10 11:48:00,
2013-01-10 05:49:00,54.7,53.6,30.30,ENE,67,3.0,8.0,96,0.00,,---,0.16,VWS V14.01,2013-01-10 11:49:00,
2013-01-10 05:51:00,54.7,53.6,30.30,ENE,73,2.0,8.0,96,0.00,,---,0.16,VWS V14.01,2013-01-10 11:51:00,
2013-01-10 05:52:00,54.7,53.9,30.30,ENE,63,4.0,9.0,97,0.00,,---,0.16,VWS V14.01,2013-01-10 11:52:00,
2013-01-10 05:53:00,54.7,53.9,30.30,East,95,5.0,9.0,97,0.00,,---,0.16,VWS V14.01,2013-01-10 11:53:00,
2013-01-10 05:54:00,54.7,53.9,30.29,ESE,115,3.0,9.0,97,0.00,,---,0.16,VWS V14.01,2013-01-10 11:54:00,
2013-01-10 05:56:00,54.7,53.9,30.29,ENE,64,2.0,9.0,97,0.00,,---,0.16,VWS V14.01,2013-01-10 11:56:00,
2013-01-10 05:57:00,54.7,53.9,30.29,NE,49,2.0,9.0,97,0.00,,---,0.16,VWS V14.01,2013-01-10 11:57:00,
2013-01-10 05:58:00,54.6,53.8,30.29,ENE,59,3.0,9.0,97,0.00,,---,0.16,VWS V14.01,2013-01-10 11:58:00,
2013-01-10 05:59:00,54.6,53.8,30.29,ESE,109,3.0,3.0,97,0.00,,---,0.16,VWS V14.01,2013-01-10 11:59:00,
2013-01-10 06:01:00,54.6,53.8,30.29,ENE,71,3.0,6.0,97,0.00,,---,0.16,VWS V14.01,2013-01-10 12:01:00,
2013-01-10 06:03:00,54.6,53.8,30.29,ENE,73,5.0,7.0,97,0.00,,---,0.16,VWS V14.01,2013-01-10 12:03:00,
2013-01-10 06:05:00,54.6,53.8,30.29,ENE,73,4.0,8.0,97,0.00,,---,0.16,VWS V14.01,2013-01-10 12:05:00,
2013-01-10 06:06:00,54.6,53.8,30.29,ENE,69,3.0,8.0,97,0.00,,---,0.16,VWS V14.01,2013-01-10 12:06:00,
2013-01-10 06:08:00,54.6,53.8,30.29,ENE,65,4.0,8.0,97,0.00,,---,0.16,VWS V14.01,2013-01-10 12:08:00,
2013-01-10 06:09:00,54.6,53.8,30.29,East,79,7.0,8.0,97,0.00,,---,0.16,VWS V14.01,2013-01-10 12:09:00,
2013-01-10 06:10:00,54.6,53.8,30.29,ENE,70,3.0,8.0,97,0.00,,---,0.16,VWS V14.01,2013-01-10 12:10:00,
2013-01-10 06:11:00,54.6,53.8,30.29,ENE,69,5.0,8.0,97,0.00,,---,0.16,VWS V14.01,2013-01-10 12:11:00,
2013-01-10 06:13:00,54.6,53.8,30.29,ENE,64,4.0,8.0,97,0.00,,---,0.16,VWS V14.01,2013-01-10 12:13:00,
2013-01-10 06:14:00,54.6,53.8,30.28,East,96,5.0,8.0,97,0.00,,---,0.16,VWS V14.01,2013-01-10 12:14:00,
2013-01-10 06:15:00,54.6,53.8,30.28,ENE,68,8.0,8.0,97,0.00,,---,0.16,VWS V14.01,2013-01-10 12:15:00,
2013-01-10 06:16:00,54.6,53.8,30.28,ENE,65,3.0,9.0,97,0.00,,---,0.16,VWS V14.01,2013-01-10 12:16:00,
2013-01-10 06:18:00,54.6,53.8,30.28,ENE,69,2.0,9.0,97,0.00,,---,0.16,VWS V14.01,2013-01-10 12:18:00,
2013-01-10 06:19:00,54.6,53.8,30.29,ENE,78,3.0,9.0,97,0.00,,---,0.16,VWS V14.01,2013-01-10 12:19:00,
2013-01-10 06:20:00,54.6,53.8,30.29,East,86,5.0,9.0,97,0.00,,---,0.16,VWS V14.01,2013-01-10 12:20:00,
2013-01-10 06:21:00,54.6,53.8,30.29,ENE,77,4.0,9.0,97,0.00,,---,0.16,VWS V14.01,2013-01-10 12:21:00,
2013-01-10 06:23:00,54.6,53.8,30.29,ENE,64,1.0,9.0,97,0.00,,---,0.16,VWS V14.01,2013-01-10 12:23:00,
2013-01-10 06:24:00,54.6,53.8,30.29,East,89,3.0,9.0,97,0.00,,---,0.16,VWS V14.01,2013-01-10 12:24:00,
2013-01-10 06:25:00,54.6,53.8,30.29,NE,46,3.0,9.0,97,0.00,,---,0.16,VWS V14.01,2013-01-10 12:25:00,
2013-01-10 06:26:00,54.6,53.8,30.29,NE,45,6.0,9.0,97,0.00,,---,0.16,VWS V14.01,2013-01-10 12:26:00,
2013-01-10 06:28:00,54.6,53.8,30.29,NE,55,5.0,9.0,97,0.00,,---,0.16,VWS V14.01,2013-01-10 12:28:00,
2013-01-10 06:29:00,54.6,53.8,30.29,NE,47,2.0,9.0,97,0.00,,---,0.16,VWS V14.01,2013-01-10 12:29:00,
2013-01-10 06:30:00,54.6,53.8,30.29,NE,44,1.0,5.0,97,0.00,,---,0.16,VWS V14.01,2013-01-10 12:30:00,
2013-01-10 06:32:00,54.6,53.8,30.29,ENE,65,3.0,7.0,97,0.00,,---,0.16,VWS V14.01,2013-01-10 12:32:00,
2013-01-10 06:33:00,54.6,53.8,30.29,NE,54,2.0,7.0,97,0.00,,---,0.16,VWS V14.01,2013-01-10 12:33:00,
2013-01-10 06:34:00,54.6,53.8,30.29,NE,45,3.0,7.0,97,0.00,,---,0.16,VWS V14.01,2013-01-10 12:34:00,
2013-01-10 06:35:00,54.7,53.9,30.29,NE,48,4.0,7.0,97,0.00,,---,0.16,VWS V14.01,2013-01-10 12:35:00,
2013-01-10 06:37:00,54.7,53.9,30.29,NE,37,2.0,7.0,97,0.00,,---,0.16,VWS V14.01,2013-01-10 12:37:00,
2013-01-10 06:38:00,54.7,53.9,30.29,NE,42,4.0,7.0,97,0.00,,---,0.16,VWS V14.01,2013-01-10 12:38:00,
2013-01-10 06:39:00,54.8,54.0,30.29,ENE,67,2.0,7.0,97,0.00,,---,0.16,VWS V14.01,2013-01-10 12:39:00,
2013-01-10 06:41:00,54.8,54.0,30.29,East,81,3.0,7.0,97,0.00,,---,0.16,VWS V14.01,2013-01-10 12:41:00,
2013-01-10 06:42:00,54.8,54.0,30.29,ENE,64,3.0,7.0,97,0.00,,---,0.16,VWS V14.01,2013-01-10 12:42:00,
2013-01-10 06:43:00,54.8,54.0,30.29,East,83,5.0,7.0,97,0.00,,---,0.16,VWS V14.01,2013-01-10 12:43:00,
2013-01-10 06:44:00,54.8,54.0,30.29,East,84,2.0,7.0,97,0.00,,---,0.16,VWS V14.01,2013-01-10 12:44:00,
2013-01-10 06:46:00,54.8,54.0,30.29,ENE,67,4.0,8.0,97,0.00,,---,0.16,VWS V14.01,2013-01-10 12:46:00,
2013-01-10 06:47:00,54.9,54.1,30.29,East,82,5.0,8.0,97,0.00,,---,0.16,VWS V14.01,2013-01-10 12:47:00,
2013-01-10 06:48:00,54.8,54.0,30.29,East,88,2.0,8.0,97,0.00,,---,0.16,VWS V14.01,2013-01-10 12:48:00,
2013-01-10 06:50:00,54.9,54.1,30.29,ENE,66,2.0,8.0,97,0.00,,---,0.16,VWS V14.01,2013-01-10 12:50:00,
2013-01-10 06:51:00,54.9,54.1,30.29,ENE,74,5.0,8.0,97,0.00,,---,0.16,VWS V14.01,2013-01-10 12:51:00,
2013-01-10 06:52:00,54.9,54.1,30.29,ENE,67,3.0,8.0,97,0.00,,---,0.16,VWS V14.01,2013-01-10 12:52:00,
2013-01-10 06:54:00,54.9,54.1,30.29,ENE,65,4.0,9.0,97,0.00,,---,0.16,VWS V14.01,2013-01-10 12:54:00,
2013-01-10 06:55:00,54.9,54.1,30.29,ENE,74,3.0,9.0,97,0.00,,---,0.16,VWS V14.01,2013-01-10 12:55:00,
2013-01-10 06:56:00,54.9,54.1,30.29,ENE,73,2.0,9.0,97,0.00,,---,0.16,VWS V14.01,2013-01-10 12:56:00,
2013-01-10 06:57:00,54.9,54.1,30.29,ENE,57,3.0,9.0,97,0.00,,---,0.16,VWS V14.01,2013-01-10 12:57:00,
2013-01-10 06:59:00,54.9,54.1,30.29,ENE,58,2.0,9.0,97,0.00,,---,0.16,VWS V14.01,2013-01-10 12:59:00,
2013-01-10 07:00:00,55.0,54.2,30.29,NNE,17,4.0,5.0,97,0.00,,---,0.16,VWS V14.01,2013-01-10 13:00:00,
2013-01-10 07:01:00,55.0,54.2,30.29,NNE,24,3.0,5.0,97,0.00,,---,0.16,VWS V14.01,2013-01-10 13:01:00,
2013-01-10 07:02:00,55.0,54.2,30.29,NNE,29,3.0,5.0,97,0.00,,---,0.16,VWS V14.01,2013-01-10 13:02:00,
2013-01-10 07:04:00,55.0,54.2,30.29,NE,44,4.0,5.0,97,0.00,,---,0.16,VWS V14.01,2013-01-10 13:04:00,
2013-01-10 07:05:00,55.1,54.3,30.30,NNE,17,2.0,6.0,97,0.00,,---,0.16,VWS V14.01,2013-01-10 13:05:00,
2013-01-10 07:06:00,55.1,54.3,30.30,NNE,19,5.0,8.0,97,0.00,,---,0.16,VWS V14.01,2013-01-10 13:06:00,
2013-01-10 07:07:00,55.1,54.3,30.30,NNE,18,5.0,8.0,97,0.00,,---,0.16,VWS V14.01,2013-01-10 13:07:00,
2013-01-10 07:09:00,55.2,54.4,30.30,NNE,28,7.0,8.0,97,0.00,,---,0.16,VWS V14.01,2013-01-10 13:09:00,
2013-01-10 07:10:00,55.1,54.3,30.30,NE,43,3.0,8.0,97,0.00,,---,0.16,VWS V14.01,2013-01-10 13:10:00,
2013-01-10 07:12:00,55.2,54.4,30.30,NE,36,5.0,8.0,97,0.00,,---,0.16,VWS V14.01,2013-01-10 13:12:00,
2013-01-10 07:14:00,55.2,54.4,30.30,NNE,20,5.0,8.0,97,0.00,,---,0.16,VWS V14.01,2013-01-10 13:14:00,
2013-01-10 07:15:00,55.2,54.4,30.30,NNE,17,3.0,8.0,97,0.00,,---,0.16,VWS V14.01,2013-01-10 13:15:00,
2013-01-10 07:17:00,55.2,54.4,30.30,NNE,29,5.0,9.0,97,0.00,,---,0.16,VWS V14.01,2013-01-10 13:17:00,
2013-01-10 07:19:00,55.2,54.4,30.30,NNE,14,6.0,9.0,97,0.00,,---,0.16,VWS V14.01,2013-01-10 13:19:00,
2013-01-10 07:20:00,55.2,54.4,30.30,NE,36,6.0,9.0,97,0.00,,---,0.16,VWS V14.01,2013-01-10 13:20:00,
2013-01-10 07:22:00,55.2,54.4,30.30,NNE,12,5.0,9.0,97,0.00,,---,0.16,VWS V14.01,2013-01-10 13:22:00,
2013-01-10 07:23:00,55.2,54.4,30.30,North,5,6.0,9.0,97,0.00,,---,0.16,VWS V14.01,2013-01-10 13:23:00,
2013-01-10 07:25:00,55.3,54.5,30.30,NNE,15,5.0,9.0,97,0.00,,---,0.16,VWS V14.01,2013-01-10 13:25:00,
2013-01-10 07:27:00,55.3,54.5,30.30,NNE,28,5.0,9.0,97,0.00,,---,0.16,VWS V14.01,2013-01-10 13:27:00,
2013-01-10 07:28:00,55.3,54.5,30.30,NE,39,4.0,9.0,97,0.00,,---,0.16,VWS V14.01,2013-01-10 13:28:00,
2013-01-10 07:30:00,55.3,54.5,30.30,NE,55,5.0,5.0,97,0.00,,---,0.16,VWS V14.01,2013-01-10 13:30:00,
2013-01-10 07:31:00,55.3,54.5,30.29,NE,50,2.0,5.0,97,0.00,,---,0.16,VWS V14.01,2013-01-10 13:31:00,
2013-01-10 07:32:00,55.3,54.5,30.30,ENE,61,2.0,5.0,97,0.00,,---,0.16,VWS V14.01,2013-01-10 13:32:00,
2013-01-10 07:33:00,55.3,54.5,30.30,NE,52,4.0,5.0,97,0.00,,---,0.16,VWS V14.01,2013-01-10 13:33:00,
2013-01-10 07:35:00,55.3,54.5,30.30,NE,51,1.0,5.0,97,0.00,,---,0.16,VWS V14.01,2013-01-10 13:35:00,
2013-01-10 07:36:00,55.3,54.5,30.30,ENE,77,2.0,5.0,97,0.00,,---,0.16,VWS V14.01,2013-01-10 13:36:00,
2013-01-10 07:37:00,55.3,54.5,30.30,ENE,66,2.0,5.0,97,0.00,,---,0.16,VWS V14.01,2013-01-10 13:37:00,
2013-01-10 07:38:00,55.3,54.5,30.30,NE,46,4.0,5.0,97,0.00,,---,0.16,VWS V14.01,2013-01-10 13:38:00,
2013-01-10 07:40:00,55.3,54.5,30.30,ENE,67,4.0,6.0,97,0.00,,---,0.16,VWS V14.01,2013-01-10 13:40:00,
2013-01-10 07:41:00,55.3,54.5,30.30,NE,53,4.0,6.0,97,0.00,,---,0.16,VWS V14.01,2013-01-10 13:41:00,
2013-01-10 07:42:00,55.3,54.5,30.30,ENE,63,1.0,6.0,97,0.00,,---,0.16,VWS V14.01,2013-01-10 13:42:00,
2013-01-10 07:44:00,55.3,54.5,30.30,NE,43,3.0,6.0,97,0.00,,---,0.16,VWS V14.01,2013-01-10 13:44:00,
2013-01-10 07:45:00,55.3,54.5,30.31,NE,49,1.0,6.0,97,0.00,,---,0.16,VWS V14.01,2013-01-10 13:45:00,
2013-01-10 07:46:00,55.3,54.5,30.31,NE,42,1.0,6.0,97,0.00,,---,0.16,VWS V14.01,2013-01-10 13:46:00,
2013-01-10 07:47:00,55.3,54.5,30.31,NE,42,1.0,6.0,97,0.00,,---,0.16,VWS V14.01,2013-01-10 13:47:00,
2013-01-10 07:49:00,55.4,54.6,30.31,NE,39,3.0,6.0,97,0.00,,---,0.16,VWS V14.01,2013-01-10 13:49:00,
2013-01-10 07:50:00,55.4,54.6,30.31,NE,34,3.0,6.0,97,0.00,,---,0.16,VWS V14.01,2013-01-10 13:50:00,
2013-01-10 07:51:00,55.4,54.6,30.31,North,11,4.0,6.0,97,0.00,,---,0.16,VWS V14.01,2013-01-10 13:51:00,
2013-01-10 07:52:00,55.4,54.6,30.31,NE,38,5.0,6.0,97,0.00,,---,0.16,VWS V14.01,2013-01-10 13:52:00,
2013-01-10 07:54:00,55.5,54.7,30.31,NNE,29,4.0,6.0,97,0.00,,---,0.16,VWS V14.01,2013-01-10 13:54:00,
2013-01-10 07:56:00,55.5,54.7,30.31,NNE,30,3.0,6.0,97,0.00,,---,0.16,VWS V14.01,2013-01-10 13:56:00,
2013-01-10 07:57:00,55.6,54.8,30.31,North,5,2.0,6.0,97,0.00,,---,0.16,VWS V14.01,2013-01-10 13:57:00,
2013-01-10 08:00:00,55.6,54.8,30.31,NNE,15,2.0,4.0,97,0.00,,---,0.16,VWS V14.01,2013-01-10 14:00:00,
2013-01-10 08:01:00,55.7,54.9,30.31,NNE,28,3.0,5.0,97,0.00,,---,0.16,VWS V14.01,2013-01-10 14:01:00,
2013-01-10 08:03:00,55.7,54.9,30.31,NNE,25,3.0,5.0,97,0.00,,---,0.16,VWS V14.01,2013-01-10 14:03:00,
2013-01-10 08:05:00,55.8,55.0,30.31,NE,41,4.0,5.0,97,0.00,,---,0.16,VWS V14.01,2013-01-10 14:05:00,
2013-01-10 08:06:00,55.8,55.0,30.31,NE,42,4.0,5.0,97,0.00,,---,0.16,VWS V14.01,2013-01-10 14:06:00,
2013-01-10 08:07:00,55.8,55.0,30.31,NE,42,1.0,5.0,97,0.00,,---,0.16,VWS V14.01,2013-01-10 14:07:00,
2013-01-10 08:08:00,55.8,55.0,30.31,NNE,29,2.0,5.0,97,0.00,,---,0.16,VWS V14.01,2013-01-10 14:08:00,
2013-01-10 08:10:00,55.8,55.0,30.32,NNE,29,1.0,5.0,97,0.00,,---,0.16,VWS V14.01,2013-01-10 14:10:00,
2013-01-10 08:11:00,55.8,55.0,30.32,NNE,29,1.0,5.0,97,0.00,,---,0.16,VWS V14.01,2013-01-10 14:11:00,
2013-01-10 08:12:00,55.8,55.0,30.32,NNE,29,2.0,5.0,97,0.00,,---,0.16,VWS V14.01,2013-01-10 14:12:00,
2013-01-10 08:13:00,55.9,55.1,30.32,NNE,29,1.0,5.0,97,0.00,,---,0.16,VWS V14.01,2013-01-10 14:13:00,
2013-01-10 08:15:00,55.9,55.1,30.32,NNE,29,2.0,5.0,97,0.00,,---,0.16,VWS V14.01,2013-01-10 14:15:00,
2013-01-10 08:16:00,55.9,55.1,30.32,North,5,2.0,5.0,97,0.00,,---,0.16,VWS V14.01,2013-01-10 14:16:00,
2013-01-10 08:17:00,55.9,55.1,30.32,North,5,2.0,5.0,97,0.00,,---,0.16,VWS V14.01,2013-01-10 14:17:00,
2013-01-10 08:18:00,55.9,55.1,30.32,North,5,3.0,5.0,97,0.00,,---,0.16,VWS V14.01,2013-01-10 14:18:00,
2013-01-10 08:20:00,55.8,55.0,30.32,North,5,2.0,5.0,97,0.00,,---,0.16,VWS V14.01,2013-01-10 14:20:00,
2013-01-10 08:21:00,55.8,55.0,30.32,North,5,3.0,5.0,97,0.00,,---,0.16,VWS V14.01,2013-01-10 14:21:00,
2013-01-10 08:22:00,55.8,55.0,30.32,North,360,4.0,5.0,97,0.00,,---,0.16,VWS V14.01,2013-01-10 14:22:00,
2013-01-10 08:23:00,55.7,54.9,30.32,North,355,3.0,5.0,97,0.00,,---,0.16,VWS V14.01,2013-01-10 14:23:00,
2013-01-10 08:25:00,55.7,54.9,30.32,North,5,3.0,5.0,97,0.00,,---,0.16,VWS V14.01,2013-01-10 14:25:00,
2013-01-10 08:27:00,55.7,54.9,30.32,North,355,3.0,5.0,97,0.00,,---,0.16,VWS V14.01,2013-01-10 14:27:00,
2013-01-10 08:29:00,55.6,54.8,30.32,North,9,3.0,5.0,97,0.00,,---,0.16,VWS V14.01,2013-01-10 14:29:00,
2013-01-10 08:30:00,55.6,54.8,30.32,North,5,2.0,4.0,97,0.00,,---,0.16,VWS V14.01,2013-01-10 14:30:00,
2013-01-10 08:32:00,55.6,54.8,30.32,North,5,3.0,4.0,97,0.00,,---,0.16,VWS V14.01,2013-01-10 14:32:00,
2013-01-10 08:34:00,55.6,54.8,30.32,North,5,1.0,4.0,97,0.00,,---,0.16,VWS V14.01,2013-01-10 14:34:00,
2013-01-10 08:36:00,55.6,54.8,30.32,North,350,4.0,4.0,97,0.00,,---,0.16,VWS V14.01,2013-01-10 14:36:00,
2013-01-10 08:37:00,55.6,54.8,30.33,North,350,3.0,4.0,97,0.00,,---,0.16,VWS V14.01,2013-01-10 14:37:00,
2013-01-10 08:38:00,55.6,54.8,30.33,North,350,2.0,4.0,97,0.00,,---,0.16,VWS V14.01,2013-01-10 14:38:00,
2013-01-10 08:39:00,55.6,54.8,30.32,NNW,344,2.0,4.0,97,0.00,,---,0.16,VWS V14.01,2013-01-10 14:39:00,
2013-01-10 08:41:00,55.5,54.7,30.32,NNW,343,3.0,4.0,97,0.00,,---,0.16,VWS V14.01,2013-01-10 14:41:00,
2013-01-10 08:42:00,55.5,54.7,30.32,North,349,3.0,4.0,97,0.00,,---,0.16,VWS V14.01,2013-01-10 14:42:00,
2013-01-10 08:43:00,55.5,54.7,30.32,North,355,3.0,4.0,97,0.00,,---,0.16,VWS V14.01,2013-01-10 14:43:00,
2013-01-10 08:44:00,55.5,54.7,30.32,North,350,4.0,4.0,97,0.00,,---,0.16,VWS V14.01,2013-01-10 14:44:00,
2013-01-10 08:46:00,55.5,54.7,30.32,North,350,2.0,4.0,97,0.00,,---,0.16,VWS V14.01,2013-01-10 14:46:00,
2013-01-10 08:47:00,55.5,54.7,30.32,North,5,3.0,4.0,97,0.00,,---,0.16,VWS V14.01,2013-01-10 14:47:00,
2013-01-10 08:48:00,55.5,54.7,30.32,North,5,3.0,4.0,97,0.00,,---,0.16,VWS V14.01,2013-01-10 14:48:00,
2013-01-10 08:49:00,55.6,54.8,30.32,North,355,3.0,5.0,97,0.00,,---,0.16,VWS V14.01,2013-01-10 14:49:00,
2013-01-10 08:51:00,55.6,54.8,30.32,North,5,3.0,5.0,97,0.00,,---,0.16,VWS V14.01,2013-01-10 14:51:00,
2013-01-10 08:52:00,55.6,54.8,30.32,North,360,2.0,5.0,97,0.00,,---,0.16,VWS V14.01,2013-01-10 14:52:00,
2013-01-10 08:53:00,55.7,54.9,30.32,North,360,1.0,5.0,97,0.00,,---,0.16,VWS V14.01,2013-01-10 14:53:00,
2013-01-10 08:54:00,55.7,54.9,30.32,North,360,1.0,5.0,97,0.00,,---,0.16,VWS V14.01,2013-01-10 14:54:00,
2013-01-10 08:56:00,55.7,54.9,30.32,North,360,1.0,5.0,97,0.00,,---,0.16,VWS V14.01,2013-01-10 14:56:00,
2013-01-10 08:57:00,55.8,55.0,30.32,North,360,0.0,5.0,97,0.00,,---,0.16,VWS V14.01,2013-01-10 14:57:00,
2013-01-10 08:58:00,55.8,55.0,30.32,NNE,26,2.0,5.0,97,0.00,,---,0.16,VWS V14.01,2013-01-10 14:58:00,
2013-01-10 09:00:00,55.9,55.1,30.32,NE,35,3.0,3.0,97,0.00,,---,0.16,VWS V14.01,2013-01-10 15:00:00,
2013-01-10 09:01:00,56.0,55.2,30.32,NE,50,3.0,5.0,97,0.00,,---,0.16,VWS V14.01,2013-01-10 15:01:00,
2013-01-10 09:03:00,56.2,55.7,30.32,ENE,57,4.0,7.0,98,0.00,,---,0.16,VWS V14.01,2013-01-10 15:03:00,
2013-01-10 09:04:00,56.5,55.9,30.32,NNE,32,5.0,7.0,98,0.00,,---,0.16,VWS V14.01,2013-01-10 15:04:00,
2013-01-10 09:06:00,56.6,56.0,30.32,NE,36,4.0,7.0,98,0.00,,---,0.16,VWS V14.01,2013-01-10 15:06:00,
2013-01-10 09:08:00,56.8,56.2,30.32,NNE,19,4.0,7.0,98,0.00,,---,0.16,VWS V14.01,2013-01-10 15:08:00,
2013-01-10 09:10:00,57.0,56.4,30.32,NNE,25,3.0,7.0,98,0.00,,---,0.16,VWS V14.01,2013-01-10 15:10:00,
2013-01-10 09:11:00,57.1,56.5,30.32,NNE,26,1.0,7.0,98,0.00,,---,0.16,VWS V14.01,2013-01-10 15:11:00,
2013-01-10 09:13:00,57.1,56.5,30.32,NE,47,4.0,7.0,98,0.00,,---,0.16,VWS V14.01,2013-01-10 15:13:00,
2013-01-10 09:15:00,57.2,56.6,30.32,NNE,19,2.0,7.0,98,0.00,,---,0.16,VWS V14.01,2013-01-10 15:15:00,
2013-01-10 09:16:00,57.3,56.7,30.32,NE,37,2.0,7.0,98,0.00,,---,0.16,VWS V14.01,2013-01-10 15:16:00,
2013-01-10 09:18:00,57.3,56.7,30.32,NE,39,3.0,7.0,98,0.00,,---,0.16,VWS V14.01,2013-01-10 15:18:00,
2013-01-10 09:19:00,57.3,56.7,30.32,NE,39,1.0,7.0,98,0.00,,---,0.16,VWS V14.01,2013-01-10 15:19:00,
2013-01-10 09:20:00,57.4,56.8,30.32,NE,35,1.0,7.0,98,0.00,,---,0.16,VWS V14.01,2013-01-10 15:20:00,
2013-01-10 09:21:00,57.5,56.9,30.32,NE,36,3.0,7.0,98,0.00,,---,0.16,VWS V14.01,2013-01-10 15:21:00,
2013-01-10 09:23:00,57.5,56.9,30.32,NNE,30,2.0,7.0,98,0.00,,---,0.16,VWS V14.01,2013-01-10 15:23:00,
2013-01-10 09:24:00,57.5,56.9,30.32,NNE,17,1.0,7.0,98,0.00,,---,0.16,VWS V14.01,2013-01-10 15:24:00,
2013-01-10 09:25:00,57.5,56.9,30.32,NE,51,3.0,7.0,98,0.00,,---,0.16,VWS V14.01,2013-01-10 15:25:00,
2013-01-10 09:27:00,57.5,56.9,30.32,NE,41,0.0,7.0,98,0.00,,---,0.16,VWS V14.01,2013-01-10 15:27:00,
2013-01-10 09:29:00,57.6,57.0,30.32,NE,38,2.0,7.0,98,0.00,,---,0.16,VWS V14.01,2013-01-10 15:29:00,
2013-01-10 09:30:00,57.6,57.0,30.32,NE,38,2.0,2.0,98,0.00,,---,0.16,VWS V14.01,2013-01-10 15:30:00,
2013-01-10 09:31:00,57.6,57.0,30.32,NNE,21,2.0,3.0,98,0.00,,---,0.16,VWS V14.01,2013-01-10 15:31:00,
2013-01-10 09:32:00,57.6,57.0,30.32,NNE,23,2.0,3.0,98,0.00,,---,0.16,VWS V14.01,2013-01-10 15:32:00,
2013-01-10 09:34:00,57.6,57.0,30.32,NNE,29,2.0,3.0,98,0.00,,---,0.16,VWS V14.01,2013-01-10 15:34:00,
2013-01-10 09:35:00,57.6,57.0,30.32,NNE,29,1.0,3.0,98,0.00,,---,0.16,VWS V14.01,2013-01-10 15:35:00,
2013-01-10 09:36:00,57.6,57.0,30.32,NNE,17,2.0,3.0,98,0.00,,---,0.16,VWS V14.01,2013-01-10 15:36:00,
2013-01-10 09:37:00,57.6,57.0,30.32,NNE,17,0.0,3.0,98,0.00,,---,0.16,VWS V14.01,2013-01-10 15:37:00,
2013-01-10 09:39:00,57.6,57.0,30.32,NE,55,3.0,7.0,98,0.00,,---,0.16,VWS V14.01,2013-01-10 15:39:00,
2013-01-10 09:40:00,57.6,57.0,30.32,NE,55,1.0,7.0,98,0.00,,---,0.16,VWS V14.01,2013-01-10 15:40:00,
2013-01-10 09:41:00,57.7,57.1,30.32,NE,55,1.0,7.0,98,0.00,,---,0.16,VWS V14.01,2013-01-10 15:41:00,
2013-01-10 09:42:00,57.7,57.1,30.32,NE,55,2.0,7.0,98,0.00,,---,0.16,VWS V14.01,2013-01-10 15:42:00,
2013-01-10 09:44:00,57.6,57.0,30.32,NE,55,2.0,7.0,98,0.00,,---,0.16,VWS V14.01,2013-01-10 15:44:00,
2013-01-10 09:45:00,57.7,57.1,30.32,NE,55,1.0,7.0,98,0.00,,---,0.16,VWS V14.01,2013-01-10 15:45:00,
2013-01-10 09:46:00,57.7,57.1,30.32,NE,55,2.0,7.0,98,0.00,,---,0.16,VWS V14.01,2013-01-10 15:46:00,
2013-01-10 09:47:00,57.7,57.1,30.32,East,79,6.0,7.0,98,0.00,,---,0.16,VWS V14.01,2013-01-10 15:47:00,
2013-01-10 09:49:00,57.8,57.2,30.32,ENE,76,1.0,7.0,98,0.00,,---,0.16,VWS V14.01,2013-01-10 15:49:00,
2013-01-10 09:51:00,57.9,57.3,30.32,ENE,63,2.0,7.0,98,0.00,,---,0.16,VWS V14.01,2013-01-10 15:51:00,
2013-01-10 09:52:00,58.0,57.4,30.32,ENE,66,2.0,7.0,98,0.00,,---,0.16,VWS V14.01,2013-01-10 15:52:00,
2013-01-10 09:54:00,58.1,57.5,30.32,NE,43,4.0,7.0,98,0.00,,---,0.16,VWS V14.01,2013-01-10 15:54:00,
2013-01-10 09:56:00,58.1,57.5,30.32,NE,55,4.0,7.0,98,0.00,,---,0.16,VWS V14.01,2013-01-10 15:56:00,
2013-01-10 09:58:00,58.2,57.6,30.32,ENE,71,2.0,7.0,98,0.00,,---,0.16,VWS V14.01,2013-01-10 15:58:00,
2013-01-10 09:59:00,58.2,57.6,30.32,ENE,71,3.0,3.0,98,0.00,,---,0.16,VWS V14.01,2013-01-10 15:59:00,
2013-01-10 10:01:00,58.2,57.6,30.32,East,94,1.0,4.0,98,0.00,,---,0.16,VWS V14.01,2013-01-10 16:01:00,
2013-01-10 10:02:00,58.2,57.6,30.31,ENE,74,1.0,4.0,98,0.00,,---,0.16,VWS V14.01,2013-01-10 16:02:00,
2013-01-10 10:03:00,58.2,57.6,30.32,ENE,75,1.0,4.0,98,0.00,,---,0.16,VWS V14.01,2013-01-10 16:03:00,
2013-01-10 10:04:00,58.3,57.7,30.31,ENE,75,1.0,4.0,98,0.00,,---,0.16,VWS V14.01,2013-01-10 16:04:00,
2013-01-10 10:06:00,58.2,57.6,30.31,ENE,69,1.0,4.0,98,0.00,,---,0.16,VWS V14.01,2013-01-10 16:06:00,
2013-01-10 10:07:00,58.3,57.7,30.31,ENE,69,2.0,4.0,98,0.00,,---,0.16,VWS V14.01,2013-01-10 16:07:00,
2013-01-10 10:08:00,58.3,57.7,30.31,ENE,77,3.0,6.0,98,0.00,,---,0.16,VWS V14.01,2013-01-10 16:08:00,
2013-01-10 10:09:00,58.3,57.7,30.31,ENE,77,0.0,6.0,98,0.00,,---,0.16,VWS V14.01,2013-01-10 16:09:00,
2013-01-10 10:11:00,58.3,57.7,30.31,East,90,1.0,6.0,98,0.00,,---,0.16,VWS V14.01,2013-01-10 16:11:00,
2013-01-10 10:12:00,58.3,57.7,30.31,East,90,1.0,6.0,98,0.00,,---,0.16,VWS V14.01,2013-01-10 16:12:00,
2013-01-10 10:14:00,58.3,57.7,30.31,ENE,78,2.0,6.0,98,0.00,,---,0.16,VWS V14.01,2013-01-10 16:14:00,
2013-01-10 10:15:00,58.3,57.7,30.32,ENE,78,0.0,6.0,98,0.00,,---,0.16,VWS V14.01,2013-01-10 16:15:00,
2013-01-10 10:17:00,58.3,57.7,30.31,ENE,71,3.0,6.0,98,0.00,,---,0.16,VWS V14.01,2013-01-10 16:17:00,
2013-01-10 10:19:00,58.4,57.8,30.31,NE,50,3.0,6.0,98,0.00,,---,0.16,VWS V14.01,2013-01-10 16:19:00,
2013-01-10 10:20:00,58.4,57.8,30.31,ENE,59,1.0,6.0,98,0.00,,---,0.16,VWS V14.01,2013-01-10 16:20:00,
2013-01-10 10:22:00,58.4,57.8,30.31,ENE,61,3.0,6.0,98,0.00,,---,0.16,VWS V14.01,2013-01-10 16:22:00,
2013-01-10 10:23:00,58.4,57.8,30.31,East,90,1.0,6.0,98,0.00,,---,0.16,VWS V14.01,2013-01-10 16:23:00,
2013-01-10 10:24:00,58.4,57.8,30.31,ENE,73,2.0,6.0,98,0.00,,---,0.16,VWS V14.01,2013-01-10 16:24:00,
2013-01-10 10:25:00,58.3,57.7,30.31,East,90,0.0,6.0,98,0.00,,---,0.16,VWS V14.01,2013-01-10 16:25:00,
2013-01-10 10:27:00,58.3,57.7,30.31,East,101,1.0,6.0,98,0.00,,---,0.16,VWS V14.01,2013-01-10 16:27:00,
2013-01-10 10:28:00,58.3,57.7,30.31,East,90,2.0,6.0,98,0.00,,---,0.16,VWS V14.01,2013-01-10 16:28:00,
2013-01-10 10:29:00,58.2,57.6,30.31,ENE,78,2.0,3.0,98,0.00,,---,0.16,VWS V14.01,2013-01-10 16:29:00,
2013-01-10 10:30:00,58.2,57.6,30.31,ENE,71,2.0,3.0,98,0.00,,---,0.16,VWS V14.01,2013-01-10 16:30:00,
2013-01-10 10:32:00,58.2,57.6,30.31,ENE,78,2.0,5.0,98,0.00,,---,0.16,VWS V14.01,2013-01-10 16:32:00,
2013-01-10 10:33:00,58.2,57.6,30.31,ENE,78,0.0,5.0,98,0.00,,---,0.16,VWS V14.01,2013-01-10 16:33:00,
2013-01-10 10:34:00,58.2,57.4,30.30,East,79,2.0,5.0,97,0.00,,---,0.16,VWS V14.01,2013-01-10 16:34:00,
2013-01-10 10:35:00,58.2,57.4,30.30,ENE,65,3.0,5.0,97,0.00,,---,0.16,VWS V14.01,2013-01-10 16:35:00,
2013-01-10 10:37:00,58.2,57.4,30.30,ENE,67,4.0,6.0,97,0.00,,---,0.16,VWS V14.01,2013-01-10 16:37:00,
2013-01-10 10:39:00,58.2,57.4,30.30,East,80,2.0,6.0,97,0.00,,---,0.16,VWS V14.01,2013-01-10 16:39:00,
2013-01-10 10:41:00,58.2,57.4,30.30,East,81,1.0,6.0,97,0.00,,---,0.16,VWS V14.01,2013-01-10 16:41:00,
2013-01-10 10:42:00,58.3,57.5,30.30,ENE,71,2.0,6.0,97,0.00,,---,0.16,VWS V14.01,2013-01-10 16:42:00,
2013-01-10 10:43:00,58.3,57.7,30.30,ENE,78,4.0,6.0,98,0.00,,---,0.16,VWS V14.01,2013-01-10 16:43:00,
2013-01-10 10:45:00,58.3,57.5,30.30,East,94,5.0,6.0,97,0.00,,---,0.16,VWS V14.01,2013-01-10 16:45:00,
2013-01-10 10:46:00,58.3,57.7,30.30,East,90,1.0,6.0,98,0.00,,---,0.16,VWS V14.01,2013-01-10 16:46:00,
2013-01-10 10:47:00,58.3,57.7,30.30,East,81,5.0,7.0,98,0.00,,---,0.16,VWS V14.01,2013-01-10 16:47:00,
2013-01-10 10:48:00,58.4,57.8,30.30,East,87,1.0,7.0,98,0.00,,---,0.16,VWS V14.01,2013-01-10 16:48:00,
2013-01-10 10:50:00,58.4,57.8,30.30,East,91,3.0,7.0,98,0.00,,---,0.16,VWS V14.01,2013-01-10 16:50:00,
2013-01-10 10:51:00,58.4,57.8,30.30,East,84,2.0,7.0,98,0.00,,---,0.16,VWS V14.01,2013-01-10 16:51:00,
2013-01-10 10:53:00,58.4,57.8,30.30,East,81,1.0,7.0,98,0.00,,---,0.16,VWS V14.01,2013-01-10 16:53:00,
2013-01-10 10:55:00,58.4,57.8,30.30,East,94,1.0,7.0,98,0.00,,---,0.16,VWS V14.01,2013-01-10 16:55:00,
2013-01-10 10:56:00,58.5,57.9,30.30,East,90,3.0,7.0,98,0.00,,---,0.16,VWS V14.01,2013-01-10 16:56:00,
2013-01-10 10:58:00,58.5,57.9,30.30,East,86,3.0,7.0,98,0.00,,---,0.16,VWS V14.01,2013-01-10 16:58:00,
2013-01-10 11:00:00,58.5,57.9,30.30,East,96,1.0,3.0,98,0.00,,---,0.16,VWS V14.01,2013-01-10 17:00:00,
2013-01-10 11:01:00,58.5,57.9,30.30,East,94,3.0,3.0,98,0.00,,---,0.16,VWS V14.01,2013-01-10 17:01:00,
2013-01-10 11:03:00,58.6,58.0,30.30,East,93,2.0,3.0,98,0.00,,---,0.16,VWS V14.01,2013-01-10 17:03:00,
2013-01-10 11:05:00,58.6,57.8,30.30,East,90,1.0,5.0,97,0.00,,---,0.16,VWS V14.01,2013-01-10 17:05:00,
2013-01-10 11:06:00,58.7,57.8,30.29,East,90,2.0,5.0,97,0.00,,---,0.16,VWS V14.01,2013-01-10 17:06:00,
2013-01-10 11:08:00,58.7,57.8,30.29,East,80,3.0,5.0,97,0.00,,---,0.16,VWS V14.01,2013-01-10 17:08:00,
2013-01-10 11:09:00,58.7,57.8,30.29,East,80,3.0,5.0,97,0.00,,---,0.16,VWS V14.01,2013-01-10 17:09:00,
2013-01-10 11:10:00,58.8,58.0,30.29,East,90,5.0,6.0,97,0.00,,---,0.16,VWS V14.01,2013-01-10 17:10:00,
2013-01-10 11:12:00,58.8,58.2,30.29,East,84,3.0,6.0,98,0.00,,---,0.16,VWS V14.01,2013-01-10 17:12:00,
2013-01-10 11:13:00,58.9,58.0,30.29,East,96,2.0,6.0,97,0.00,,---,0.16,VWS V14.01,2013-01-10 17:13:00,
2013-01-10 11:14:00,58.9,58.3,30.29,East,82,3.0,6.0,98,0.00,,---,0.16,VWS V14.01,2013-01-10 17:14:00,
2013-01-10 11:16:00,58.9,58.3,30.29,ESE,102,3.0,6.0,98,0.00,,---,0.16,VWS V14.01,2013-01-10 17:16:00,
2013-01-10 11:17:00,59.0,58.4,30.29,East,91,3.0,6.0,98,0.00,,---,0.16,VWS V14.01,2013-01-10 17:17:00,
2013-01-10 11:18:00,59.1,58.5,30.29,East,89,3.0,6.0,98,0.00,,---,0.16,VWS V14.01,2013-01-10 17:18:00,
2013-01-10 11:19:00,59.1,58.5,30.29,East,88,3.0,6.0,98,0.00,,---,0.16,VWS V14.01,2013-01-10 17:19:00,
2013-01-10 11:21:00,59.2,58.6,30.29,ESE,104,2.0,6.0,98,0.00,,---,0.16,VWS V14.01,2013-01-10 17:21:00,
2013-01-10 11:22:00,59.2,58.6,30.29,ESE,102,4.0,6.0,98,0.00,,---,0.16,VWS V14.01,2013-01-10 17:22:00,
2013-01-10 11:23:00,59.3,58.7,30.29,East,98,2.0,6.0,98,0.00,,---,0.16,VWS V14.01,2013-01-10 17:23:00,
2013-01-10 11:24:00,59.3,58.7,30.28,East,92,3.0,6.0,98,0.00,,---,0.16,VWS V14.01,2013-01-10 17:24:00,
2013-01-10 11:26:00,59.4,58.8,30.28,ESE,103,2.0,6.0,98,0.00,,---,0.16,VWS V14.01,2013-01-10 17:26:00,
2013-01-10 11:27:00,59.5,58.9,30.28,East,87,2.0,6.0,98,0.00,,---,0.16,VWS V14.01,2013-01-10 17:27:00,
2013-01-10 11:28:00,59.6,59.0,30.28,East,98,1.0,6.0,98,0.00,,---,0.16,VWS V14.01,2013-01-10 17:28:00,
2013-01-10 11:29:00,59.7,59.1,30.28,ENE,78,2.0,3.0,98,0.00,,---,0.16,VWS V14.01,2013-01-10 17:29:00,
2013-01-10 11:31:00,59.8,59.2,30.28,East,84,5.0,7.0,98,0.00,,---,0.16,VWS V14.01,2013-01-10 17:31:00,
2013-01-10 11:32:00,59.9,59.3,30.28,East,101,5.0,7.0,98,0.00,,---,0.16,VWS V14.01,2013-01-10 17:32:00,
2013-01-10 11:33:00,60.0,59.4,30.28,East,95,2.0,7.0,98,0.00,,---,0.16,VWS V14.01,2013-01-10 17:33:00,
2013-01-10 11:34:00,60.1,59.5,30.28,East,101,6.0,7.0,98,0.00,,---,0.16,VWS V14.01,2013-01-10 17:34:00,
2013-01-10 11:36:00,60.2,59.6,30.27,East,101,2.0,7.0,98,0.00,,---,0.16,VWS V14.01,2013-01-10 17:36:00,
2013-01-10 11:37:00,60.3,59.7,30.27,East,93,5.0,7.0,98,0.00,,---,0.16,VWS V14.01,2013-01-10 17:37:00,
2013-01-10 11:39:00,60.3,59.7,30.27,East,94,6.0,7.0,98,0.00,,---,0.16,VWS V14.01,2013-01-10 17:39:00,
2013-01-10 11:41:00,60.5,59.9,30.27,East,83,3.0,7.0,98,0.00,,---,0.16,VWS V14.01,2013-01-10 17:41:00,
2013-01-10 11:42:00,60.5,59.9,30.27,NE,53,5.0,7.0,98,0.00,,---,0.16,VWS V14.01,2013-01-10 17:42:00,
2013-01-10 11:44:00,60.6,60.0,30.27,East,86,5.0,7.0,98,0.00,,---,0.16,VWS V14.01,2013-01-10 17:44:00,
2013-01-10 11:45:00,60.6,60.0,30.27,East,96,7.0,7.0,98,0.00,,---,0.16,VWS V14.01,2013-01-10 17:45:00,
2013-01-10 11:46:00,60.7,60.1,30.27,East,92,3.0,7.0,98,0.00,,---,0.16,VWS V14.01,2013-01-10 17:46:00,
2013-01-10 11:47:00,60.8,60.2,30.27,East,97,2.0,7.0,98,0.00,,---,0.16,VWS V14.01,2013-01-10 17:47:00,
2013-01-10 11:49:00,60.9,60.3,30.27,ENE,62,2.0,7.0,98,0.00,,---,0.16,VWS V14.01,2013-01-10 17:49:00,
2013-01-10 11:50:00,60.9,60.3,30.27,East,92,3.0,7.0,98,0.00,,---,0.16,VWS V14.01,2013-01-10 17:50:00,
2013-01-10 11:51:00,61.0,60.4,30.27,East,96,1.0,7.0,98,0.00,,---,0.16,VWS V14.01,2013-01-10 17:51:00,
2013-01-10 11:52:00,61.0,60.4,30.27,ESE,115,2.0,7.0,98,0.00,,---,0.16,VWS V14.01,2013-01-10 17:52:00,
2013-01-10 11:55:00,61.1,60.5,30.26,East,96,5.0,7.0,98,0.00,,---,0.16,VWS V14.01,2013-01-10 17:55:00,
2013-01-10 11:56:00,61.1,60.5,30.26,ESE,104,4.0,7.0,98,0.00,,---,0.16,VWS V14.01,2013-01-10 17:56:00,
2013-01-10 11:57:00,61.2,60.6,30.26,East,97,2.0,7.0,98,0.00,,---,0.16,VWS V14.01,2013-01-10 17:57:00,
2013-01-10 12:00:00,61.2,60.6,30.26,ESE,102,2.0,3.0,98,0.00,,---,0.16,VWS V14.01,2013-01-10 18:00:00,
2013-01-10 12:02:00,61.3,60.7,30.26,ESE,102,2.0,3.0,98,0.00,,---,0.16,VWS V14.01,2013-01-10 18:02:00,
2013-01-10 12:05:00,61.4,60.8,30.26,East,94,2.0,3.0,98,0.00,,---,0.16,VWS V14.01,2013-01-10 18:05:00,
2013-01-10 12:07:00,61.4,60.8,30.26,East,101,2.0,4.0,98,0.00,,---,0.16,VWS V14.01,2013-01-10 18:07:00,
2013-01-10 12:10:00,61.6,61.0,30.26,East,98,3.0,5.0,98,0.00,,---,0.16,VWS V14.01,2013-01-10 18:10:00,
2013-01-10 12:12:00,61.6,61.0,30.26,East,94,5.0,5.0,98,0.00,,---,0.16,VWS V14.01,2013-01-10 18:12:00,
2013-01-10 12:13:00,61.6,61.0,30.26,East,96,5.0,5.0,98,0.00,,---,0.16,VWS V14.01,2013-01-10 18:13:00,
2013-01-10 12:15:00,61.7,61.1,30.26,East,81,2.0,5.0,98,0.00,,---,0.16,VWS V14.01,2013-01-10 18:15:00,
2013-01-10 12:17:00,61.7,61.1,30.26,ENE,74,1.0,5.0,98,0.00,,---,0.16,VWS V14.01,2013-01-10 18:17:00,
2013-01-10 12:18:00,61.8,61.2,30.26,East,81,2.0,5.0,98,0.00,,---,0.16,VWS V14.01,2013-01-10 18:18:00,
2013-01-10 12:20:00,61.8,61.2,30.26,East,85,0.0,5.0,98,0.00,,---,0.16,VWS V14.01,2013-01-10 18:20:00,
2013-01-10 12:22:00,61.8,61.2,30.26,East,85,0.0,5.0,98,0.00,,---,0.16,VWS V14.01,2013-01-10 18:22:00,
2013-01-10 12:23:00,61.8,61.2,30.25,East,86,1.0,5.0,98,0.00,,---,0.16,VWS V14.01,2013-01-10 18:23:00,
2013-01-10 12:25:00,61.9,61.3,30.25,East,90,3.0,5.0,98,0.00,,---,0.16,VWS V14.01,2013-01-10 18:25:00,
2013-01-10 12:26:00,61.9,61.3,30.25,East,90,1.0,5.0,98,0.00,,---,0.16,VWS V14.01,2013-01-10 18:26:00,
2013-01-10 12:27:00,61.9,61.3,30.25,East,90,1.0,5.0,98,0.00,,---,0.16,VWS V14.01,2013-01-10 18:27:00,
2013-01-10 12:28:00,62.0,61.4,30.25,East,90,0.0,5.0,98,0.00,,---,0.16,VWS V14.01,2013-01-10 18:28:00,
2013-01-10 12:31:00,62.0,61.4,30.25,East,90,2.0,3.0,98,0.00,,---,0.16,VWS V14.01,2013-01-10 18:31:00,
2013-01-10 12:32:00,62.0,61.4,30.25,East,88,2.0,3.0,98,0.00,,---,0.16,VWS V14.01,2013-01-10 18:32:00,
2013-01-10 12:34:00,62.1,61.5,30.25,East,89,3.0,3.0,98,0.00,,---,0.16,VWS V14.01,2013-01-10 18:34:00,
2013-01-10 12:36:00,62.1,61.5,30.25,East,98,3.0,3.0,98,0.00,,---,0.16,VWS V14.01,2013-01-10 18:36:00,
2013-01-10 12:37:00,62.1,61.5,30.25,ESE,123,4.0,8.0,98,0.00,,---,0.16,VWS V14.01,2013-01-10 18:37:00,
2013-01-10 12:39:00,62.2,61.6,30.25,East,82,1.0,8.0,98,0.00,,---,0.16,VWS V14.01,2013-01-10 18:39:00,
2013-01-10 12:41:00,62.2,61.6,30.25,ESE,121,2.0,8.0,98,0.00,,---,0.16,VWS V14.01,2013-01-10 18:41:00,
2013-01-10 12:43:00,62.3,61.7,30.24,ESE,121,1.0,8.0,98,0.00,,---,0.16,VWS V14.01,2013-01-10 18:43:00,
2013-01-10 12:44:00,62.3,61.7,30.24,SE,142,2.0,8.0,98,0.00,,---,0.16,VWS V14.01,2013-01-10 18:44:00,
2013-01-10 12:46:00,62.5,61.9,30.24,ESE,115,4.0,8.0,98,0.00,,---,0.16,VWS V14.01,2013-01-10 18:46:00,
2013-01-10 12:47:00,62.6,62.0,30.24,ESE,104,7.0,8.0,98,0.00,,---,0.16,VWS V14.01,2013-01-10 18:47:00,
2013-01-10 12:48:00,62.7,62.1,30.24,ESE,116,5.0,8.0,98,0.00,,---,0.16,VWS V14.01,2013-01-10 18:48:00,
2013-01-10 12:49:00,62.7,62.1,30.24,ESE,123,3.0,8.0,98,0.00,,---,0.16,VWS V14.01,2013-01-10 18:49:00,
2013-01-10 12:51:00,62.9,62.3,30.24,ESE,122,8.0,11.0,98,0.00,,---,0.16,VWS V14.01,2013-01-10 18:51:00,
2013-01-10 12:52:00,63.0,62.4,30.24,ESE,113,7.0,11.0,98,0.00,,---,0.16,VWS V14.01,2013-01-10 18:52:00,
2013-01-10 12:53:00,63.0,62.4,30.24,East,95,8.0,11.0,98,0.00,,---,0.16,VWS V14.01,2013-01-10 18:53:00,
2013-01-10 12:54:00,63.1,62.5,30.24,SE,126,5.0,11.0,98,0.00,,---,0.16,VWS V14.01,2013-01-10 18:54:00,
2013-01-10 12:56:00,63.2,62.6,30.24,East,100,8.0,11.0,98,0.00,,---,0.16,VWS V14.01,2013-01-10 18:56:00,
2013-01-10 12:57:00,63.2,62.6,30.24,SE,134,4.0,11.0,98,0.00,,---,0.16,VWS V14.01,2013-01-10 18:57:00,
2013-01-10 12:58:00,63.2,62.6,30.24,SE,131,4.0,11.0,98,0.00,,---,0.16,VWS V14.01,2013-01-10 18:58:00,
2013-01-10 12:59:00,63.3,62.7,30.24,ESE,114,3.0,8.0,98,0.00,,---,0.16,VWS V14.01,2013-01-10 18:59:00,
2013-01-10 13:02:00,63.3,62.7,30.24,ESE,119,7.0,9.0,98,0.00,,---,0.16,VWS V14.01,2013-01-10 19:02:00,
2013-01-10 13:03:00,63.3,62.7,30.23,East,96,5.0,9.0,98,0.00,,---,0.16,VWS V14.01,2013-01-10 19:03:00,
2013-01-10 13:05:00,63.4,62.8,30.24,ESE,106,7.0,11.0,98,0.00,,---,0.16,VWS V14.01,2013-01-10 19:05:00,
2013-01-10 13:07:00,63.4,62.8,30.24,SE,130,7.0,11.0,98,0.00,,---,0.16,VWS V14.01,2013-01-10 19:07:00,
2013-01-10 13:08:00,63.4,62.8,30.23,ESE,111,5.0,11.0,98,0.00,,---,0.16,VWS V14.01,2013-01-10 19:08:00,
2013-01-10 13:09:00,63.4,62.8,30.23,ESE,112,8.0,11.0,98,0.00,,---,0.16,VWS V14.01,2013-01-10 19:09:00,
2013-01-10 13:10:00,63.4,62.8,30.24,ESE,121,2.0,11.0,98,0.00,,---,0.16,VWS V14.01,2013-01-10 19:10:00,
2013-01-10 13:12:00,63.4,62.8,30.24,SE,128,2.0,11.0,98,0.00,,---,0.16,VWS V14.01,2013-01-10 19:12:00,
2013-01-10 13:13:00,63.4,62.8,30.24,ESE,111,4.0,11.0,98,0.00,,---,0.16,VWS V14.01,2013-01-10 19:13:00,
2013-01-10 13:14:00,63.5,62.9,30.24,ESE,123,4.0,11.0,98,0.00,,---,0.16,VWS V14.01,2013-01-10 19:14:00,
2013-01-10 13:15:00,63.5,62.9,30.24,SE,132,4.0,11.0,98,0.00,,---,0.16,VWS V14.01,2013-01-10 19:15:00,
2013-01-10 13:17:00,63.5,62.9,30.24,ESE,118,3.0,11.0,98,0.00,,---,0.16,VWS V14.01,2013-01-10 19:17:00,
2013-01-10 13:18:00,63.5,62.9,30.24,ESE,121,4.0,11.0,98,0.00,,---,0.16,VWS V14.01,2013-01-10 19:18:00,
2013-01-10 13:19:00,63.5,62.9,30.24,SE,141,5.0,11.0,98,0.00,,---,0.16,VWS V14.01,2013-01-10 19:19:00,
2013-01-10 13:20:00,63.5,62.9,30.24,ESE,111,4.0,11.0,98,0.00,,---,0.16,VWS V14.01,2013-01-10 19:20:00,
2013-01-10 13:22:00,63.6,63.0,30.24,ESE,113,3.0,11.0,98,0.00,,---,0.16,VWS V14.01,2013-01-10 19:22:00,
2013-01-10 13:23:00,63.6,63.0,30.24,ESE,113,4.0,11.0,98,0.00,,---,0.16,VWS V14.01,2013-01-10 19:23:00,
2013-01-10 13:25:00,63.6,63.0,30.24,SE,132,4.0,11.0,98,0.00,,---,0.16,VWS V14.01,2013-01-10 19:25:00,
2013-01-10 13:27:00,63.6,63.0,30.24,SE,126,4.0,11.0,98,0.00,,---,0.16,VWS V14.01,2013-01-10 19:27:00,
2013-01-10 13:28:00,63.6,63.0,30.25,SE,128,3.0,11.0,98,0.00,,---,0.16,VWS V14.01,2013-01-10 19:28:00,
2013-01-10 13:30:00,63.6,63.0,30.24,SE,146,3.0,7.0,98,0.00,,---,0.16,VWS V14.01,2013-01-10 19:30:00,
2013-01-10 13:33:00,63.6,63.0,30.24,SE,125,4.0,7.0,98,0.00,,---,0.16,VWS V14.01,2013-01-10 19:33:00,
2013-01-10 13:35:00,63.6,63.0,30.24,ESE,114,2.0,7.0,98,0.00,,---,0.16,VWS V14.01,2013-01-10 19:35:00,
2013-01-10 13:36:00,63.6,63.0,30.24,ESE,113,1.0,7.0,98,0.00,,---,0.16,VWS V14.01,2013-01-10 19:36:00,
2013-01-10 13:37:00,63.6,63.0,30.24,SE,127,4.0,8.0,98,0.00,,---,0.16,VWS V14.01,2013-01-10 19:37:00,
2013-01-10 13:40:00,63.6,63.0,30.24,ESE,123,2.0,8.0,98,0.00,,---,0.16,VWS V14.01,2013-01-10 19:40:00,
2013-01-10 13:41:00,63.7,63.1,30.24,ESE,122,1.0,8.0,98,0.00,,---,0.16,VWS V14.01,2013-01-10 19:41:00,
2013-01-10 13:43:00,63.7,63.1,30.24,ESE,117,2.0,8.0,98,0.00,,---,0.16,VWS V14.01,2013-01-10 19:43:00,
2013-01-10 13:45:00,63.7,63.1,30.24,ESE,114,3.0,8.0,98,0.00,,---,0.16,VWS V14.01,2013-01-10 19:45:00,
2013-01-10 13:46:00,63.7,63.1,30.24,East,92,3.0,8.0,98,0.00,,---,0.16,VWS V14.01,2013-01-10 19:46:00,
2013-01-10 13:48:00,63.7,63.1,30.24,ESE,118,2.0,8.0,98,0.00,,---,0.16,VWS V14.01,2013-01-10 19:48:00,
2013-01-10 13:50:00,63.7,63.1,30.24,East,93,2.0,8.0,98,0.00,,---,0.16,VWS V14.01,2013-01-10 19:50:00,
2013-01-10 13:51:00,63.7,63.1,30.24,ESE,117,3.0,8.0,98,0.00,,---,0.16,VWS V14.01,2013-01-10 19:51:00,
2013-01-10 13:53:00,63.7,63.1,30.24,ESE,121,5.0,8.0,98,0.00,,---,0.16,VWS V14.01,2013-01-10 19:53:00,
2013-01-10 13:55:00,63.7,63.1,30.24,ESE,115,3.0,8.0,98,0.00,,---,0.16,VWS V14.01,2013-01-10 19:55:00,
2013-01-10 13:56:00,63.7,63.1,30.24,ESE,115,3.0,8.0,98,0.00,,---,0.16,VWS V14.01,2013-01-10 19:56:00,
2013-01-10 13:58:00,63.7,63.1,30.24,ESE,106,2.0,8.0,98,0.00,,---,0.16,VWS V14.01,2013-01-10 19:58:00,
2013-01-10 14:00:00,63.7,63.1,30.23,SE,130,6.0,6.0,98,0.01,,---,0.17,VWS V14.01,2013-01-10 20:00:00,
2013-01-10 14:02:00,63.7,63.1,30.23,East,101,5.0,7.0,98,0.01,,---,0.17,VWS V14.01,2013-01-10 20:02:00,
2013-01-10 14:03:00,63.6,63.0,30.23,SE,134,2.0,7.0,98,0.01,,---,0.17,VWS V14.01,2013-01-10 20:03:00,
2013-01-10 14:05:00,63.6,63.0,30.23,ESE,111,3.0,7.0,98,0.01,,---,0.17,VWS V14.01,2013-01-10 20:05:00,
2013-01-10 14:07:00,63.6,63.0,30.23,ESE,113,5.0,7.0,98,0.01,,---,0.17,VWS V14.01,2013-01-10 20:07:00,
2013-01-10 14:08:00,63.6,63.0,30.23,East,101,5.0,10.0,98,0.01,,---,0.17,VWS V14.01,2013-01-10 20:08:00,
2013-01-10 14:10:00,63.6,63.0,30.23,ESE,118,4.0,10.0,98,0.01,,---,0.17,VWS V14.01,2013-01-10 20:10:00,
2013-01-10 14:12:00,63.6,63.0,30.23,ESE,103,8.0,10.0,98,0.01,,---,0.17,VWS V14.01,2013-01-10 20:12:00,
2013-01-10 14:13:00,63.6,63.0,30.23,ESE,104,7.0,10.0,98,0.01,,---,0.17,VWS V14.01,2013-01-10 20:13:00,
2013-01-10 14:16:00,63.6,63.0,30.23,ESE,119,3.0,10.0,98,0.01,,---,0.17,VWS V14.01,2013-01-10 20:16:00,
2013-01-10 14:17:00,63.6,63.0,30.23,ESE,121,4.0,10.0,98,0.01,,---,0.17,VWS V14.01,2013-01-10 20:17:00,
2013-01-10 14:18:00,63.6,63.0,30.23,East,101,3.0,10.0,98,0.01,,---,0.17,VWS V14.01,2013-01-10 20:18:00,
2013-01-10 14:21:00,63.6,63.0,30.23,ESE,113,3.0,10.0,98,0.01,,---,0.17,VWS V14.01,2013-01-10 20:21:00,
2013-01-10 14:22:00,63.6,63.0,30.23,ESE,107,5.0,10.0,98,0.01,,---,0.17,VWS V14.01,2013-01-10 20:22:00,
2013-01-10 14:24:00,63.6,63.0,30.23,ESE,120,5.0,10.0,98,0.01,,---,0.17,VWS V14.01,2013-01-10 20:24:00,
2013-01-10 14:26:00,63.5,62.9,30.23,ESE,104,5.0,10.0,98,0.01,,---,0.17,VWS V14.01,2013-01-10 20:26:00,
2013-01-10 14:27:00,63.5,62.9,30.23,East,86,7.0,10.0,98,0.01,,---,0.17,VWS V14.01,2013-01-10 20:27:00,
2013-01-10 14:29:00,63.5,62.9,30.23,ESE,123,3.0,10.0,98,0.01,,---,0.17,VWS V14.01,2013-01-10 20:29:00,
2013-01-10 14:31:00,63.5,62.9,30.22,East,93,5.0,8.0,98,0.01,,---,0.17,VWS V14.01,2013-01-10 20:31:00,
2013-01-10 14:32:00,63.4,62.8,30.22,ESE,102,5.0,8.0,98,0.01,,---,0.17,VWS V14.01,2013-01-10 20:32:00,
2013-01-10 14:34:00,63.4,62.8,30.22,ESE,115,3.0,8.0,98,0.01,,---,0.17,VWS V14.01,2013-01-10 20:34:00,
2013-01-10 14:36:00,63.3,62.7,30.22,ESE,119,5.0,8.0,98,0.01,,---,0.17,VWS V14.01,2013-01-10 20:36:00,
2013-01-10 14:37:00,63.3,62.7,30.22,ESE,109,8.0,8.0,98,0.01,,---,0.17,VWS V14.01,2013-01-10 20:37:00,
2013-01-10 14:39:00,63.3,62.7,30.22,ESE,115,7.0,9.0,98,0.01,,---,0.17,VWS V14.01,2013-01-10 20:39:00,
2013-01-10 14:41:00,63.2,62.6,30.21,ESE,111,4.0,9.0,98,0.01,,---,0.17,VWS V14.01,2013-01-10 20:41:00,
2013-01-10 14:43:00,63.2,62.6,30.21,SE,127,8.0,9.0,98,0.01,,---,0.17,VWS V14.01,2013-01-10 20:43:00,
2013-01-10 14:44:00,63.2,62.6,30.21,East,101,11.0,11.0,98,0.01,,---,0.17,VWS V14.01,2013-01-10 20:44:00,
2013-01-10 14:46:00,63.2,62.6,30.22,ESE,117,5.0,11.0,98,0.01,,---,0.17,VWS V14.01,2013-01-10 20:46:00,
2013-01-10 14:49:00,63.2,62.6,30.22,ESE,117,3.0,11.0,98,0.01,,---,0.17,VWS V14.01,2013-01-10 20:49:00,
2013-01-10 14:51:00,63.2,62.6,30.22,ESE,119,5.0,11.0,98,0.01,,---,0.17,VWS V14.01,2013-01-10 20:51:00,
2013-01-10 14:54:00,63.2,62.6,30.22,ESE,117,4.0,11.0,98,0.01,,---,0.17,VWS V14.01,2013-01-10 20:54:00,
2013-01-10 14:56:00,63.1,62.5,30.22,SE,128,5.0,11.0,98,0.01,,---,0.17,VWS V14.01,2013-01-10 20:56:00,
2013-01-10 14:59:00,63.1,62.5,30.22,ESE,121,7.0,11.0,98,0.01,,---,0.17,VWS V14.01,2013-01-10 20:59:00,
2013-01-10 15:01:00,63.1,62.5,30.22,ESE,103,8.0,10.0,98,0.00,,---,0.17,VWS V14.01,2013-01-10 21:01:00,
2013-01-10 15:04:00,63.2,62.6,30.22,East,95,6.0,10.0,98,0.00,,---,0.17,VWS V14.01,2013-01-10 21:04:00,
2013-01-10 15:06:00,63.2,62.6,30.22,East,97,5.0,10.0,98,0.00,,---,0.17,VWS V14.01,2013-01-10 21:06:00,
2013-01-10 15:09:00,63.2,62.6,30.22,East,101,3.0,10.0,98,0.00,,---,0.17,VWS V14.01,2013-01-10 21:09:00,
2013-01-10 15:10:00,63.2,62.6,30.22,ESE,123,3.0,10.0,98,0.00,,---,0.17,VWS V14.01,2013-01-10 21:10:00,
2013-01-10 15:11:00,63.2,62.6,30.22,SE,134,6.0,10.0,98,0.00,,---,0.17,VWS V14.01,2013-01-10 21:11:00,
2013-01-10 15:14:00,63.1,62.5,30.22,ESE,117,9.0,11.0,98,0.00,,---,0.17,VWS V14.01,2013-01-10 21:14:00,
2013-01-10 15:15:00,63.1,62.5,30.22,East,98,3.0,11.0,98,0.00,,---,0.17,VWS V14.01,2013-01-10 21:15:00,
2013-01-10 15:17:00,63.2,62.6,30.22,ESE,111,3.0,11.0,98,0.00,,---,0.17,VWS V14.01,2013-01-10 21:17:00,
2013-01-10 15:19:00,63.1,62.5,30.22,SE,126,5.0,11.0,98,0.00,,---,0.17,VWS V14.01,2013-01-10 21:19:00,
2013-01-10 15:20:00,63.1,62.5,30.22,ESE,105,5.0,11.0,98,0.00,,---,0.17,VWS V14.01,2013-01-10 21:20:00,
2013-01-10 15:22:00,63.1,62.5,30.22,East,94,3.0,11.0,98,0.00,,---,0.17,VWS V14.01,2013-01-10 21:22:00,
2013-01-10 15:24:00,63.1,62.5,30.22,ESE,108,7.0,11.0,98,0.00,,---,0.17,VWS V14.01,2013-01-10 21:24:00,
2013-01-10 15:25:00,63.1,62.5,30.22,SE,126,7.0,11.0,98,0.00,,---,0.17,VWS V14.01,2013-01-10 21:25:00,
2013-01-10 15:27:00,63.1,62.2,30.22,ESE,105,7.0,11.0,97,0.00,,---,0.17,VWS V14.01,2013-01-10 21:27:00,
2013-01-10 15:29:00,63.1,62.2,30.22,ESE,103,4.0,11.0,97,0.00,,---,0.17,VWS V14.01,2013-01-10 21:29:00,
2013-01-10 15:30:00,63.1,62.2,30.22,East,96,5.0,7.0,97,0.00,,---,0.17,VWS V14.01,2013-01-10 21:30:00,
2013-01-10 15:33:00,63.1,62.2,30.22,East,98,5.0,11.0,97,0.00,,---,0.17,VWS V14.01,2013-01-10 21:33:00,
2013-01-10 15:34:00,63.1,62.2,30.22,ESE,105,2.0,11.0,97,0.00,,---,0.17,VWS V14.01,2013-01-10 21:34:00,
2013-01-10 15:36:00,63.1,62.2,30.22,ESE,107,4.0,11.0,97,0.00,,---,0.17,VWS V14.01,2013-01-10 21:36:00,
2013-01-10 15:38:00,63.1,62.2,30.22,ESE,107,7.0,11.0,97,0.00,,---,0.17,VWS V14.01,2013-01-10 21:38:00,
2013-01-10 15:40:00,63.1,62.2,30.22,ESE,123,9.0,14.0,97,0.00,,---,0.17,VWS V14.01,2013-01-10 21:40:00,
2013-01-10 15:41:00,63.1,62.2,30.22,ESE,107,3.0,14.0,97,0.00,,---,0.17,VWS V14.01,2013-01-10 21:41:00,
2013-01-10 15:43:00,63.1,62.2,30.22,ESE,113,5.0,14.0,97,0.00,,---,0.17,VWS V14.01,2013-01-10 21:43:00,
2013-01-10 15:45:00,63.1,62.2,30.22,ESE,109,4.0,14.0,97,0.00,,---,0.17,VWS V14.01,2013-01-10 21:45:00,
2013-01-10 15:46:00,63.1,62.2,30.22,ESE,123,3.0,14.0,97,0.00,,---,0.17,VWS V14.01,2013-01-10 21:46:00,
2013-01-10 15:48:00,63.1,62.2,30.22,ESE,109,2.0,14.0,97,0.00,,---,0.17,VWS V14.01,2013-01-10 21:48:00,
2013-01-10 15:50:00,63.1,62.2,30.22,ESE,108,4.0,14.0,97,0.00,,---,0.17,VWS V14.01,2013-01-10 21:50:00,
2013-01-10 15:51:00,63.2,62.3,30.22,ESE,105,4.0,14.0,97,0.00,,---,0.17,VWS V14.01,2013-01-10 21:51:00,
2013-01-10 15:53:00,63.2,62.3,30.22,ESE,109,3.0,14.0,97,0.00,,---,0.17,VWS V14.01,2013-01-10 21:53:00,
2013-01-10 15:55:00,63.2,62.3,30.22,ESE,115,3.0,14.0,97,0.00,,---,0.17,VWS V14.01,2013-01-10 21:55:00,
2013-01-10 15:56:00,63.2,62.3,30.22,SE,137,4.0,14.0,97,0.00,,---,0.17,VWS V14.01,2013-01-10 21:56:00,
2013-01-10 15:58:00,63.2,62.3,30.22,SE,130,6.0,14.0,97,0.00,,---,0.17,VWS V14.01,2013-01-10 21:58:00,
2013-01-10 16:00:00,63.2,62.3,30.22,ESE,106,8.0,8.0,97,0.00,,---,0.17,VWS V14.01,2013-01-10 22:00:00,
2013-01-10 16:01:00,63.2,62.3,30.21,ESE,115,4.0,8.0,97,0.00,,---,0.17,VWS V14.01,2013-01-10 22:01:00,
2013-01-10 16:03:00,63.2,62.3,30.22,SE,124,3.0,8.0,97,0.00,,---,0.17,VWS V14.01,2013-01-10 22:03:00,
2013-01-10 16:05:00,63.2,62.3,30.21,East,100,3.0,8.0,97,0.00,,---,0.17,VWS V14.01,2013-01-10 22:05:00,
2013-01-10 16:06:00,63.2,62.3,30.21,SE,139,5.0,8.0,97,0.00,,---,0.17,VWS V14.01,2013-01-10 22:06:00,
2013-01-10 16:08:00,63.2,62.3,30.21,ESE,105,4.0,8.0,97,0.00,,---,0.17,VWS V14.01,2013-01-10 22:08:00,
2013-01-10 16:11:00,63.2,62.3,30.21,SE,140,3.0,10.0,97,0.00,,---,0.17,VWS V14.01,2013-01-10 22:11:00,
2013-01-10 16:12:00,63.3,62.4,30.21,East,99,9.0,10.0,97,0.00,,---,0.17,VWS V14.01,2013-01-10 22:12:00,
2013-01-10 16:14:00,63.3,62.4,30.20,East,101,7.0,10.0,97,0.00,,---,0.17,VWS V14.01,2013-01-10 22:14:00,
2013-01-10 16:16:00,63.3,62.4,30.20,ESE,102,7.0,10.0,97,0.00,,---,0.17,VWS V14.01,2013-01-10 22:16:00,
2013-01-10 16:17:00,63.3,62.4,30.20,ESE,114,4.0,10.0,97,0.00,,---,0.17,VWS V14.01,2013-01-10 22:17:00,
2013-01-10 16:19:00,63.3,62.4,30.20,East,100,2.0,10.0,97,0.00,,---,0.17,VWS V14.01,2013-01-10 22:19:00,
2013-01-10 16:21:00,63.3,62.4,30.20,East,81,5.0,10.0,97,0.00,,---,0.17,VWS V14.01,2013-01-10 22:21:00,
2013-01-10 16:22:00,63.3,62.4,30.20,ESE,107,4.0,10.0,97,0.00,,---,0.17,VWS V14.01,2013-01-10 22:22:00,
2013-01-10 16:24:00,63.3,62.4,30.20,East,99,7.0,10.0,97,0.00,,---,0.17,VWS V14.01,2013-01-10 22:24:00,
2013-01-10 16:26:00,63.3,62.4,30.20,ESE,107,7.0,10.0,97,0.00,,---,0.17,VWS V14.01,2013-01-10 22:26:00,
2013-01-10 16:27:00,63.3,62.4,30.20,SE,128,6.0,10.0,97,0.00,,---,0.17,VWS V14.01,2013-01-10 22:27:00,
2013-01-10 16:29:00,63.3,62.4,30.20,SE,126,10.0,14.0,97,0.00,,---,0.17,VWS V14.01,2013-01-10 22:29:00,
2013-01-10 16:31:00,63.3,62.4,30.20,ESE,115,3.0,7.0,97,0.00,,---,0.17,VWS V14.01,2013-01-10 22:31:00,
2013-01-10 16:32:00,63.4,62.5,30.20,ESE,107,5.0,9.0,97,0.00,,---,0.17,VWS V14.01,2013-01-10 22:32:00,
2013-01-10 16:34:00,63.3,62.4,30.20,ESE,116,5.0,9.0,97,0.00,,---,0.17,VWS V14.01,2013-01-10 22:34:00,
2013-01-10 16:36:00,63.3,62.4,30.20,ESE,109,5.0,9.0,97,0.00,,---,0.17,VWS V14.01,2013-01-10 22:36:00,
2013-01-10 16:37:00,63.4,62.5,30.20,ESE,122,8.0,9.0,97,0.00,,---,0.17,VWS V14.01,2013-01-10 22:37:00,
2013-01-10 16:39:00,63.3,62.4,30.20,SE,134,5.0,9.0,97,0.00,,---,0.17,VWS V14.01,2013-01-10 22:39:00,
2013-01-10 16:41:00,63.4,62.2,30.20,East,97,5.0,9.0,96,0.00,,---,0.17,VWS V14.01,2013-01-10 22:41:00,
2013-01-10 16:42:00,63.3,62.1,30.20,East,93,6.0,9.0,96,0.00,,---,0.17,VWS V14.01,2013-01-10 22:42:00,
2013-01-10 16:44:00,63.3,62.1,30.20,ESE,119,5.0,9.0,96,0.00,,---,0.17,VWS V14.01,2013-01-10 22:44:00,
2013-01-10 16:47:00,63.4,62.2,30.20,ESE,105,8.0,9.0,96,0.00,,---,0.17,VWS V14.01,2013-01-10 22:47:00,
2013-01-10 16:49:00,63.4,62.2,30.20,East,101,9.0,12.0,96,0.00,,---,0.17,VWS V14.01,2013-01-10 22:49:00,
2013-01-10 16:52:00,63.4,62.2,30.20,East,84,8.0,13.0,96,0.00,,---,0.17,VWS V14.01,2013-01-10 22:52:00,
2013-01-10 16:53:00,63.4,62.2,30.20,ESE,113,5.0,13.0,96,0.00,,---,0.17,VWS V14.01,2013-01-10 22:53:00,
2013-01-10 16:54:00,63.4,62.2,30.20,ESE,112,3.0,13.0,96,0.00,,---,0.17,VWS V14.01,2013-01-10 22:54:00,
2013-01-10 16:57:00,63.4,62.2,30.20,ESE,112,4.0,13.0,96,0.00,,---,0.17,VWS V14.01,2013-01-10 22:57:00,
2013-01-10 16:58:00,63.4,62.2,30.20,ESE,112,5.0,13.0,96,0.00,,---,0.17,VWS V14.01,2013-01-10 22:58:00,
2013-01-10 16:59:00,63.4,62.2,30.19,ESE,110,5.0,8.0,96,0.00,,---,0.17,VWS V14.01,2013-01-10 22:59:00,
2013-01-10 17:02:00,63.4,62.2,30.20,SE,128,8.0,11.0,96,0.00,,---,0.17,VWS V14.01,2013-01-10 23:02:00,
2013-01-10 17:03:00,63.4,62.2,30.20,ESE,112,7.0,11.0,96,0.00,,---,0.17,VWS V14.01,2013-01-10 23:03:00,
2013-01-10 17:05:00,63.4,62.2,30.20,SE,126,5.0,13.0,96,0.00,,---,0.17,VWS V14.01,2013-01-10 23:05:00,
2013-01-10 17:08:00,63.4,62.2,30.20,SE,127,6.0,13.0,96,0.00,,---,0.17,VWS V14.01,2013-01-10 23:08:00,
2013-01-10 17:10:00,63.4,62.2,30.20,ESE,112,7.0,13.0,96,0.00,,---,0.17,VWS V14.01,2013-01-10 23:10:00,
2013-01-10 17:13:00,63.5,62.3,30.19,ESE,117,7.0,13.0,96,0.00,,---,0.17,VWS V14.01,2013-01-10 23:13:00,
2013-01-10 17:15:00,63.5,62.3,30.19,East,94,11.0,13.0,96,0.00,,---,0.17,VWS V14.01,2013-01-10 23:15:00,
2013-01-10 17:18:00,63.4,62.2,30.20,ESE,121,10.0,14.0,96,0.00,,---,0.17,VWS V14.01,2013-01-10 23:18:00,
2013-01-10 17:19:00,63.4,62.2,30.20,ESE,110,11.0,15.0,96,0.00,,---,0.17,VWS V14.01,2013-01-10 23:19:00,
2013-01-10 17:20:00,63.5,62.3,30.20,ESE,113,4.0,15.0,96,0.00,,---,0.17,VWS V14.01,2013-01-10 23:20:00,
2013-01-10 17:23:00,63.5,62.3,30.20,ESE,117,3.0,15.0,96,0.00,,---,0.17,VWS V14.01,2013-01-10 23:23:00,
2013-01-10 17:24:00,63.5,62.3,30.20,ESE,118,9.0,15.0,96,0.00,,---,0.17,VWS V14.01,2013-01-10 23:24:00,
2013-01-10 17:25:00,63.5,62.3,30.20,SE,134,5.0,15.0,96,0.00,,---,0.17,VWS V14.01,2013-01-10 23:25:00,
2013-01-10 17:29:00,63.5,62.3,30.20,ESE,112,9.0,15.0,96,0.00,,---,0.17,VWS V14.01,2013-01-10 23:29:00,
2013-01-10 17:30:00,63.5,62.3,30.20,SE,129,6.0,9.0,96,0.00,,---,0.17,VWS V14.01,2013-01-10 23:30:00,
2013-01-10 17:34:00,63.5,62.0,30.20,ESE,109,3.0,9.0,95,0.00,,---,0.17,VWS V14.01,2013-01-10 23:34:00,
2013-01-10 17:36:00,63.5,62.0,30.20,ESE,123,5.0,9.0,95,0.00,,---,0.17,VWS V14.01,2013-01-10 23:36:00,
2013-01-10 17:39:00,63.5,62.0,30.20,ESE,120,4.0,10.0,95,0.00,,---,0.17,VWS V14.01,2013-01-10 23:39:00,
2013-01-10 17:41:00,63.5,62.0,30.20,SE,138,4.0,10.0,95,0.00,,---,0.17,VWS V14.01,2013-01-10 23:41:00,
2013-01-10 17:44:00,63.5,62.0,30.20,ESE,119,8.0,10.0,95,0.00,,---,0.17,VWS V14.01,2013-01-10 23:44:00,
2013-01-10 17:46:00,63.5,62.0,30.20,ESE,104,3.0,10.0,95,0.00,,---,0.17,VWS V14.01,2013-01-10 23:46:00,
2013-01-10 17:49:00,63.5,62.0,30.20,East,96,5.0,10.0,95,0.00,,---,0.17,VWS V14.01,2013-01-10 23:49:00,
2013-01-10 17:51:00,63.4,62.0,30.20,ESE,110,4.0,10.0,95,0.00,,---,0.17,VWS V14.01,2013-01-10 23:51:00,
2013-01-10 17:54:00,63.4,62.0,30.20,ESE,115,4.0,10.0,95,0.00,,---,0.17,VWS V14.01,2013-01-10 23:54:00,
2013-01-10 17:56:00,63.4,62.0,30.20,ESE,122,3.0,10.0,95,0.00,,---,0.17,VWS V14.01,2013-01-10 23:56:00,
2013-01-10 17:59:00,63.4,62.0,30.20,ESE,109,5.0,5.0,95,0.00,,---,0.17,VWS V14.01,2013-01-10 23:59:00,
2013-01-10 18:00:00,63.4,62.0,30.20,ESE,104,5.0,7.0,95,0.00,,---,0.17,VWS V14.01,2013-01-11 00:00:00,
2013-01-10 18:01:00,63.4,62.0,30.20,ESE,110,4.0,7.0,95,0.00,,---,0.17,VWS V14.01,2013-01-11 00:01:00,
2013-01-10 18:04:00,63.4,62.0,30.20,SE,125,5.0,8.0,95,0.00,,---,0.17,VWS V14.01,2013-01-11 00:04:00,
2013-01-10 18:05:00,63.4,62.0,30.20,East,100,3.0,8.0,95,0.00,,---,0.17,VWS V14.01,2013-01-11 00:05:00,
2013-01-10 18:06:00,63.4,62.0,30.20,ESE,107,3.0,8.0,95,0.00,,---,0.17,VWS V14.01,2013-01-11 00:06:00,
2013-01-10 18:10:00,63.4,62.0,30.19,ESE,112,3.0,8.0,95,0.00,,---,0.17,VWS V14.01,2013-01-11 00:10:00,
2013-01-10 18:11:00,63.4,62.0,30.20,SSE,148,3.0,8.0,95,0.00,,---,0.17,VWS V14.01,2013-01-11 00:11:00,
2013-01-10 18:15:00,63.4,62.0,30.19,ESE,105,7.0,8.0,95,0.00,,---,0.17,VWS V14.01,2013-01-11 00:15:00,
2013-01-10 18:16:00,63.4,62.0,30.19,ESE,114,4.0,8.0,95,0.00,,---,0.17,VWS V14.01,2013-01-11 00:16:00,
2013-01-10 18:20:00,63.4,62.0,30.19,SE,127,4.0,9.0,95,0.00,,---,0.17,VWS V14.01,2013-01-11 00:20:00,
2013-01-10 18:22:00,63.4,62.0,30.19,East,98,7.0,9.0,95,0.00,,---,0.17,VWS V14.01,2013-01-11 00:22:00,
2013-01-10 18:25:00,63.4,62.0,30.19,SE,132,7.0,9.0,95,0.00,,---,0.17,VWS V14.01,2013-01-11 00:25:00,
2013-01-10 18:27:00,63.4,62.0,30.19,East,96,7.0,9.0,95,0.00,,---,0.17,VWS V14.01,2013-01-11 00:27:00,
2013-01-10 18:30:00,63.4,62.0,30.19,SE,131,8.0,11.0,95,0.00,,---,0.17,VWS V14.01,2013-01-11 00:30:00,
2013-01-10 18:31:00,63.5,62.0,30.19,ESE,108,8.0,11.0,95,0.00,,---,0.17,VWS V14.01,2013-01-11 00:31:00,
2013-01-10 18:32:00,63.5,62.0,30.19,East,100,7.0,11.0,95,0.00,,---,0.17,VWS V14.01,2013-01-11 00:32:00,
2013-01-10 18:36:00,63.5,62.0,30.19,SE,145,4.0,13.0,95,0.00,,---,0.17,VWS V14.01,2013-01-11 00:36:00,
2013-01-10 18:37:00,63.6,62.2,30.19,SE,137,10.0,14.0,95,0.00,,---,0.17,VWS V14.01,2013-01-11 00:37:00,
2013-01-10 18:41:00,63.6,62.2,30.19,SSE,161,5.0,14.0,95,0.00,,---,0.17,VWS V14.01,2013-01-11 00:41:00,
2013-01-10 18:42:00,63.6,62.2,30.19,East,92,5.0,14.0,95,0.00,,---,0.17,VWS V14.01,2013-01-11 00:42:00,
2013-01-10 18:46:00,63.6,62.2,30.18,ESE,120,7.0,15.0,95,0.00,,---,0.17,VWS V14.01,2013-01-11 00:46:00,
2013-01-10 18:47:00,63.6,62.2,30.19,SE,132,5.0,15.0,95,0.00,,---,0.17,VWS V14.01,2013-01-11 00:47:00,
2013-01-10 18:51:00,63.6,62.2,30.19,SE,143,9.0,15.0,95,0.00,,---,0.17,VWS V14.01,2013-01-11 00:51:00,
2013-01-10 18:52:00,63.5,62.0,30.19,SE,130,6.0,15.0,95,0.00,,---,0.17,VWS V14.01,2013-01-11 00:52:00,
2013-01-10 18:56:00,63.5,62.0,30.19,ESE,113,4.0,15.0,95,0.00,,---,0.17,VWS V14.01,2013-01-11 00:56:00,
2013-01-10 18:58:00,63.5,62.0,30.19,ESE,105,9.0,15.0,95,0.00,,---,0.17,VWS V14.01,2013-01-11 00:58:00,
2013-01-10 19:01:00,63.5,62.0,30.19,ESE,123,4.0,10.0,95,0.00,,---,0.17,VWS V14.01,2013-01-11 01:01:00,
2013-01-10 19:02:00,63.5,62.0,30.19,SE,125,5.0,10.0,95,0.00,,---,0.17,VWS V14.01,2013-01-11 01:02:00,
2013-01-10 19:03:00,63.4,62.0,30.18,ESE,118,4.0,10.0,95,0.00,,---,0.17,VWS V14.01,2013-01-11 01:03:00,
2013-01-10 19:06:00,63.4,62.0,30.18,East,98,3.0,10.0,95,0.01,,---,0.18,VWS V14.01,2013-01-11 01:06:00,
2013-01-10 19:07:00,63.4,62.0,30.18,ESE,115,3.0,10.0,95,0.01,,---,0.18,VWS V14.01,2013-01-11 01:07:00,
2013-01-10 19:08:00,63.3,61.8,30.18,ESE,121,7.0,10.0,95,0.01,,---,0.18,VWS V14.01,2013-01-11 01:08:00,
2013-01-10 19:11:00,63.2,62.0,30.18,SE,134,4.0,10.0,96,0.01,,---,0.18,VWS V14.01,2013-01-11 01:11:00,
2013-01-10 19:12:00,63.2,62.0,30.18,SE,134,5.0,10.0,96,0.01,,---,0.18,VWS V14.01,2013-01-11 01:12:00,
2013-01-10 19:13:00,63.2,62.0,30.18,ESE,109,4.0,10.0,96,0.02,,---,0.19,VWS V14.01,2013-01-11 01:13:00,
2013-01-10 19:17:00,63.1,61.9,30.18,ESE,122,10.0,10.0,96,0.02,,---,0.19,VWS V14.01,2013-01-11 01:17:00,
2013-01-10 19:18:00,63.1,61.9,30.18,ESE,123,5.0,10.0,96,0.02,,---,0.19,VWS V14.01,2013-01-11 01:18:00,
2013-01-10 19:22:00,63.0,61.8,30.18,ESE,115,7.0,10.0,96,0.02,,---,0.19,VWS V14.01,2013-01-11 01:22:00,
2013-01-10 19:23:00,62.9,61.8,30.18,ESE,109,8.0,10.0,96,0.02,,---,0.19,VWS V14.01,2013-01-11 01:23:00,
2013-01-10 19:27:00,62.9,61.8,30.18,SE,126,5.0,11.0,96,0.02,,---,0.19,VWS V14.01,2013-01-11 01:27:00,
2013-01-10 19:28:00,62.9,61.8,30.18,ESE,106,5.0,12.0,96,0.02,,---,0.19,VWS V14.01,2013-01-11 01:28:00,
2013-01-10 19:32:00,62.8,61.7,30.17,SE,135,5.0,8.0,96,0.02,,---,0.19,VWS V14.01,2013-01-11 01:32:00,
2013-01-10 19:34:00,62.8,61.7,30.18,SE,133,3.0,10.0,96,0.02,,---,0.19,VWS V14.01,2013-01-11 01:34:00,
2013-01-10 19:37:00,62.7,61.8,30.17,ESE,109,9.0,10.0,97,0.02,,---,0.19,VWS V14.01,2013-01-11 01:37:00,
2013-01-10 19:39:00,62.7,61.8,30.17,ESE,109,7.0,10.0,97,0.02,,---,0.19,VWS V14.01,2013-01-11 01:39:00,
2013-01-10 19:42:00,62.7,61.8,30.17,ESE,120,9.0,10.0,97,0.02,,---,0.19,VWS V14.01,2013-01-11 01:42:00,
2013-01-10 19:44:00,62.7,61.8,30.17,SE,142,6.0,10.0,97,0.02,,---,0.19,VWS V14.01,2013-01-11 01:44:00,
2013-01-10 19:47:00,62.7,61.8,30.17,SSE,160,9.0,17.0,97,0.02,,---,0.19,VWS V14.01,2013-01-11 01:47:00,
2013-01-10 19:49:00,62.7,61.8,30.17,ESE,109,8.0,17.0,97,0.02,,---,0.19,VWS V14.01,2013-01-11 01:49:00,
2013-01-10 19:52:00,62.7,61.8,30.17,SE,135,8.0,17.0,97,0.02,,---,0.19,VWS V14.01,2013-01-11 01:52:00,
2013-01-10 19:54:00,62.8,61.9,30.17,SE,129,11.0,17.0,97,0.02,,---,0.19,VWS V14.01,2013-01-11 01:54:00,
2013-01-10 19:57:00,62.8,61.9,30.17,SE,140,6.0,17.0,97,0.02,,---,0.19,VWS V14.01,2013-01-11 01:57:00,
2013-01-10 19:58:00,62.8,61.9,30.17,South,180,6.0,17.0,97,0.02,,---,0.19,VWS V14.01,2013-01-11 01:58:00,
2013-01-10 20:00:00,62.8,61.9,30.17,ESE,119,8.0,11.0,97,0.02,,---,0.19,VWS V14.01,2013-01-11 02:00:00,
2013-01-10 20:02:00,62.8,61.9,30.16,SSE,154,6.0,13.0,97,0.02,,---,0.19,VWS V14.01,2013-01-11 02:02:00,
2013-01-10 20:03:00,62.8,61.9,30.16,SE,132,8.0,13.0,97,0.02,,---,0.19,VWS V14.01,2013-01-11 02:03:00,
2013-01-10 20:05:00,62.8,61.9,30.16,ESE,121,4.0,18.0,97,0.02,,---,0.19,VWS V14.01,2013-01-11 02:05:00,
2013-01-10 20:07:00,62.8,61.7,30.16,SE,128,14.0,18.0,96,0.02,,---,0.19,VWS V14.01,2013-01-11 02:07:00,
2013-01-10 20:08:00,62.8,61.7,30.16,ESE,121,12.0,18.0,96,0.02,,---,0.19,VWS V14.01,2013-01-11 02:08:00,
2013-01-10 20:10:00,62.8,61.7,30.16,ESE,113,5.0,18.0,96,0.02,,---,0.19,VWS V14.01,2013-01-11 02:10:00,
2013-01-10 20:12:00,62.8,61.7,30.15,ESE,123,8.0,18.0,96,0.02,,---,0.19,VWS V14.01,2013-01-11 02:12:00,
2013-01-10 20:13:00,62.8,61.7,30.15,SE,134,6.0,18.0,96,0.02,,---,0.19,VWS V14.01,2013-01-11 02:13:00,
2013-01-10 20:15:00,62.8,61.7,30.14,East,81,10.0,18.0,96,0.02,,---,0.19,VWS V14.01,2013-01-11 02:15:00,
2013-01-10 20:17:00,62.9,61.8,30.14,ESE,104,12.0,18.0,96,0.02,,---,0.19,VWS V14.01,2013-01-11 02:17:00,
2013-01-10 20:18:00,62.8,61.7,30.14,SE,131,8.0,18.0,96,0.02,,---,0.19,VWS V14.01,2013-01-11 02:18:00,
2013-01-10 20:20:00,62.9,61.8,30.14,SSE,158,7.0,20.0,96,0.02,,---,0.19,VWS V14.01,2013-01-11 02:20:00,
2013-01-10 20:23:00,63.0,61.8,30.14,ESE,121,18.0,20.0,96,0.02,,---,0.19,VWS V14.01,2013-01-11 02:23:00,
2013-01-10 20:25:00,63.0,61.8,30.13,ESE,113,9.0,20.0,96,0.02,,---,0.19,VWS V14.01,2013-01-11 02:25:00,
2013-01-10 20:28:00,63.1,61.9,30.13,SE,144,15.0,20.0,96,0.02,,---,0.19,VWS V14.01,2013-01-11 02:28:00,
2013-01-10 20:30:00,63.1,61.9,30.13,East,96,14.0,14.0,96,0.00,,---,0.19,VWS V14.01,2013-01-11 02:30:00,
2013-01-10 20:33:00,63.2,62.0,30.12,ESE,103,7.0,17.0,96,0.00,,---,0.19,VWS V14.01,2013-01-11 02:33:00,
2013-01-10 20:35:00,63.1,61.7,30.12,ESE,116,17.0,17.0,95,0.00,,---,0.19,VWS V14.01,2013-01-11 02:35:00,
2013-01-10 20:38:00,63.1,61.7,30.12,ESE,122,10.0,17.0,95,0.00,,---,0.19,VWS V14.01,2013-01-11 02:38:00,
2013-01-10 20:40:00,63.2,61.8,30.11,ESE,113,14.0,19.0,95,0.00,,---,0.19,VWS V14.01,2013-01-11 02:40:00,
2013-01-10 20:43:00,63.3,61.8,30.11,SE,129,11.0,19.0,95,0.00,,---,0.19,VWS V14.01,2013-01-11 02:43:00,
2013-01-10 20:44:00,63.3,61.8,30.11,ESE,121,7.0,19.0,95,0.00,,---,0.19,VWS V14.01,2013-01-11 02:44:00,
2013-01-10 20:46:00,63.4,62.0,30.11,ESE,113,8.0,19.0,95,0.00,,---,0.19,VWS V14.01,2013-01-11 02:46:00,
2013-01-10 20:48:00,63.4,62.0,30.11,East,94,13.0,19.0,95,0.00,,---,0.19,VWS V14.01,2013-01-11 02:48:00,
2013-01-10 20:49:00,63.4,62.0,30.11,SE,144,11.0,19.0,95,0.00,,---,0.19,VWS V14.01,2013-01-11 02:49:00,
2013-01-10 20:53:00,63.4,62.0,30.11,ESE,120,11.0,21.0,95,0.00,,---,0.19,VWS V14.01,2013-01-11 02:53:00,
2013-01-10 20:54:00,63.4,62.0,30.11,ESE,115,11.0,21.0,95,0.00,,---,0.19,VWS V14.01,2013-01-11 02:54:00,
2013-01-10 20:58:00,63.5,61.8,30.10,SE,140,7.0,21.0,94,0.00,,---,0.19,VWS V14.01,2013-01-11 02:58:00,
2013-01-10 20:59:00,63.5,61.8,30.10,SE,125,6.0,21.0,94,0.00,,---,0.19,VWS V14.01,2013-01-11 02:59:00,
2013-01-10 21:03:00,63.5,61.8,30.10,SE,131,7.0,16.0,94,0.00,,---,0.19,VWS V14.01,2013-01-11 03:03:00,
2013-01-10 21:04:00,63.5,61.8,30.10,SSE,147,9.0,16.0,94,0.00,,---,0.19,VWS V14.01,2013-01-11 03:04:00,
2013-01-10 21:08:00,63.6,61.8,30.09,ESE,111,19.0,22.0,94,0.00,,---,0.19,VWS V14.01,2013-01-11 03:08:00,
2013-01-10 21:09:00,63.6,61.8,30.09,SSE,155,16.0,22.0,94,0.00,,---,0.19,VWS V14.01,2013-01-11 03:09:00,
2013-01-10 21:14:00,63.7,62.0,30.08,SE,145,13.0,23.0,94,0.00,,---,0.19,VWS V14.01,2013-01-11 03:14:00,
2013-01-10 21:19:00,63.8,61.7,30.08,ESE,115,15.0,23.0,93,0.00,,---,0.19,VWS V14.01,2013-01-11 03:19:00,
2013-01-10 21:20:00,63.8,61.7,30.07,ESE,108,15.0,25.0,93,0.00,,---,0.19,VWS V14.01,2013-01-11 03:20:00,
2013-01-10 21:24:00,63.9,61.8,30.07,SE,126,9.0,31.0,93,0.00,,---,0.19,VWS V14.01,2013-01-11 03:24:00,
2013-01-10 21:25:00,63.9,61.8,30.07,SE,136,12.0,31.0,93,0.00,,---,0.19,VWS V14.01,2013-01-11 03:25:00,
2013-01-10 21:29:00,64.0,61.9,30.06,ESE,109,19.0,31.0,93,0.00,,---,0.19,VWS V14.01,2013-01-11 03:29:00,
2013-01-10 21:30:00,64.0,61.9,30.06,East,90,16.0,22.0,93,0.00,,---,0.19,VWS V14.01,2013-01-11 03:30:00,
2013-01-10 21:34:00,64.0,61.9,30.05,SE,127,28.0,37.0,93,0.00,,---,0.19,VWS V14.01,2013-01-11 03:34:00,
2013-01-10 21:35:00,64.0,61.9,30.04,SE,131,17.0,37.0,93,0.00,,---,0.19,VWS V14.01,2013-01-11 03:35:00,
2013-01-10 21:40:00,64.1,62.0,30.04,ESE,119,12.0,37.0,93,0.00,,---,0.19,VWS V14.01,2013-01-11 03:40:00,
2013-01-10 21:41:00,64.2,61.8,30.04,SE,142,14.0,37.0,92,0.00,,---,0.19,VWS V14.01,2013-01-11 03:41:00,
2013-01-10 21:45:00,64.2,61.8,30.04,ESE,106,23.0,37.0,92,0.00,,---,0.19,VWS V14.01,2013-01-11 03:45:00,
2013-01-10 21:46:00,64.2,61.8,30.04,SE,124,18.0,37.0,92,0.00,,---,0.19,VWS V14.01,2013-01-11 03:46:00,
2013-01-10 21:50:00,64.3,61.9,30.04,ESE,121,14.0,37.0,92,0.00,,---,0.19,VWS V14.01,2013-01-11 03:50:00,
2013-01-10 21:51:00,64.3,61.9,30.04,SE,140,16.0,37.0,92,0.00,,---,0.19,VWS V14.01,2013-01-11 03:51:00,
2013-01-10 21:55:00,64.2,61.8,30.04,ESE,108,13.0,37.0,92,0.00,,---,0.19,VWS V14.01,2013-01-11 03:55:00,
2013-01-10 21:56:00,64.3,61.9,30.04,ESE,115,11.0,37.0,92,0.00,,---,0.19,VWS V14.01,2013-01-11 03:56:00,
2013-01-10 22:00:00,64.3,61.9,30.04,ESE,115,15.0,15.0,92,0.00,,---,0.19,VWS V14.01,2013-01-11 04:00:00,
2013-01-10 22:01:00,64.3,61.9,30.04,SE,126,12.0,15.0,92,0.00,,---,0.19,VWS V14.01,2013-01-11 04:01:00,
2013-01-10 22:06:00,64.3,61.9,30.03,ESE,104,16.0,24.0,92,0.00,,---,0.19,VWS V14.01,2013-01-11 04:06:00,
2013-01-10 22:07:00,64.3,61.9,30.04,ESE,116,11.0,24.0,92,0.00,,---,0.19,VWS V14.01,2013-01-11 04:07:00,
2013-01-10 22:11:00,64.4,62.0,30.04,ESE,104,9.0,24.0,92,0.00,,---,0.19,VWS V14.01,2013-01-11 04:11:00,
2013-01-10 22:12:00,64.4,62.0,30.04,SE,140,11.0,24.0,92,0.00,,---,0.19,VWS V14.01,2013-01-11 04:12:00,
2013-01-10 22:16:00,64.5,62.1,30.04,SE,146,10.0,24.0,92,0.00,,---,0.19,VWS V14.01,2013-01-11 04:16:00,
2013-01-10 22:17:00,64.5,62.1,30.03,SE,146,15.0,24.0,92,0.00,,---,0.19,VWS V14.01,2013-01-11 04:17:00,
2013-01-10 22:21:00,64.5,62.1,30.03,SE,125,7.0,24.0,92,0.00,,---,0.19,VWS V14.01,2013-01-11 04:21:00,
2013-01-10 22:22:00,64.5,62.1,30.03,SSE,164,21.0,26.0,92,0.00,,---,0.19,VWS V14.01,2013-01-11 04:22:00,
2013-01-10 22:26:00,64.5,62.1,30.04,SSE,153,9.0,26.0,92,0.00,,---,0.19,VWS V14.01,2013-01-11 04:26:00,
2013-01-10 22:27:00,64.5,62.1,30.04,SE,132,14.0,26.0,92,0.00,,---,0.19,VWS V14.01,2013-01-11 04:27:00,
2013-01-10 22:31:00,64.6,61.9,30.06,SSE,165,8.0,15.0,91,0.00,,---,0.19,VWS V14.01,2013-01-11 04:31:00,
2013-01-10 22:32:00,64.6,61.9,30.07,SSE,152,5.0,15.0,91,0.00,,---,0.19,VWS V14.01,2013-01-11 04:32:00,
2013-01-10 22:36:00,64.7,62.0,30.07,South,177,3.0,16.0,91,0.00,,---,0.19,VWS V14.01,2013-01-11 04:36:00,
2013-01-10 22:37:00,64.7,62.0,30.07,SSE,162,6.0,16.0,91,0.00,,---,0.19,VWS V14.01,2013-01-11 04:37:00,
2013-01-10 22:41:00,64.6,61.9,30.07,ESE,123,4.0,16.0,91,0.00,,---,0.19,VWS V14.01,2013-01-11 04:41:00,
2013-01-10 22:42:00,64.6,61.9,30.07,SSE,154,5.0,16.0,91,0.00,,---,0.19,VWS V14.01,2013-01-11 04:42:00,
2013-01-10 22:46:00,64.5,61.8,30.06,South,172,11.0,16.0,91,0.00,,---,0.19,VWS V14.01,2013-01-11 04:46:00,
2013-01-10 22:47:00,64.5,61.8,30.06,SE,134,5.0,16.0,91,0.00,,---,0.19,VWS V14.01,2013-01-11 04:47:00,
2013-01-10 22:51:00,64.5,61.8,30.07,SSE,147,7.0,16.0,91,0.00,,---,0.19,VWS V14.01,2013-01-11 04:51:00,
2013-01-10 22:52:00,64.5,61.8,30.07,SE,124,9.0,16.0,91,0.00,,---,0.19,VWS V14.01,2013-01-11 04:52:00,
2013-01-10 22:56:00,64.5,61.8,30.07,SW,217,6.0,16.0,91,0.00,,---,0.19,VWS V14.01,2013-01-11 04:56:00,
2013-01-10 22:57:00,64.5,61.8,30.07,South,178,8.0,16.0,91,0.00,,---,0.19,VWS V14.01,2013-01-11 04:57:00,
2013-01-10 22:58:00,64.6,61.9,30.07,SE,140,5.0,16.0,91,0.00,,---,0.19,VWS V14.01,2013-01-11 04:58:00,
2013-01-10 23:00:00,64.6,61.6,30.07,SE,142,10.0,13.0,90,0.00,,---,0.19,VWS V14.01,2013-01-11 05:00:00,
2013-01-10 23:02:00,64.6,61.9,30.08,SE,140,4.0,13.0,91,0.00,,---,0.19,VWS V14.01,2013-01-11 05:02:00,
2013-01-10 23:03:00,64.5,61.8,30.07,SSE,155,12.0,13.0,91,0.00,,---,0.19,VWS V14.01,2013-01-11 05:03:00,
2013-01-10 23:05:00,64.5,61.5,30.08,SE,137,5.0,13.0,90,0.00,,---,0.19,VWS V14.01,2013-01-11 05:05:00,
2013-01-10 23:07:00,64.5,61.5,30.08,SW,215,8.0,13.0,90,0.00,,---,0.19,VWS V14.01,2013-01-11 05:07:00,
2013-01-10 23:08:00,64.5,61.5,30.08,SSW,201,10.0,13.0,90,0.00,,---,0.19,VWS V14.01,2013-01-11 05:08:00,
2013-01-10 23:10:00,64.6,61.6,30.08,SSW,213,4.0,13.0,90,0.00,,---,0.19,VWS V14.01,2013-01-11 05:10:00,
2013-01-10 23:12:00,64.6,61.6,30.08,SE,141,4.0,13.0,90,0.00,,---,0.19,VWS V14.01,2013-01-11 05:12:00,
2013-01-10 23:13:00,64.6,61.6,30.08,SE,146,3.0,13.0,90,0.00,,---,0.19,VWS V14.01,2013-01-11 05:13:00,
2013-01-10 23:15:00,64.6,61.6,30.08,SE,140,5.0,13.0,90,0.00,,---,0.19,VWS V14.01,2013-01-11 05:15:00,
2013-01-10 23:17:00,64.6,61.6,30.08,SSE,155,5.0,13.0,90,0.00,,---,0.19,VWS V14.01,2013-01-11 05:17:00,
2013-01-10 23:18:00,64.5,61.5,30.08,South,188,5.0,13.0,90,0.00,,---,0.19,VWS V14.01,2013-01-11 05:18:00,
2013-01-10 23:19:00,64.5,61.5,30.08,SSE,147,7.0,13.0,90,0.00,,---,0.19,VWS V14.01,2013-01-11 05:19:00,
2013-01-10 23:20:00,64.5,61.5,30.07,ESE,115,7.0,13.0,90,0.00,,---,0.19,VWS V14.01,2013-01-11 05:20:00,
2013-01-10 23:23:00,64.5,61.5,30.08,SSE,158,7.0,13.0,90,0.00,,---,0.19,VWS V14.01,2013-01-11 05:23:00,
2013-01-10 23:24:00,64.5,61.5,30.08,SE,136,17.0,17.0,90,0.00,,---,0.19,VWS V14.01,2013-01-11 05:24:00,
2013-01-10 23:25:00,64.5,61.5,30.08,SW,219,4.0,17.0,90,0.00,,---,0.19,VWS V14.01,2013-01-11 05:25:00,
2013-01-10 23:28:00,64.5,61.5,30.08,South,178,8.0,17.0,90,0.00,,---,0.19,VWS V14.01,2013-01-11 05:28:00,
2013-01-10 23:29:00,64.5,61.5,30.08,South,169,11.0,17.0,90,0.00,,---,0.19,VWS V14.01,2013-01-11 05:29:00,
2013-01-10 23:31:00,64.5,61.5,30.08,SSE,158,4.0,7.0,90,0.00,,---,0.19,VWS V14.01,2013-01-11 05:31:00,
2013-01-10 23:33:00,64.5,61.5,30.08,ESE,119,5.0,11.0,90,0.00,,---,0.19,VWS V14.01,2013-01-11 05:33:00,
2013-01-10 23:34:00,64.6,61.6,30.08,SE,146,4.0,11.0,90,0.00,,---,0.19,VWS V14.01,2013-01-11 05:34:00,
2013-01-10 23:36:00,64.5,61.5,30.07,South,175,11.0,11.0,90,0.00,,---,0.19,VWS V14.01,2013-01-11 05:36:00,
2013-01-10 23:38:00,64.5,61.5,30.07,ESE,110,5.0,14.0,90,0.00,,---,0.19,VWS V14.01,2013-01-11 05:38:00,
2013-01-10 23:39:00,64.5,61.2,30.07,SSW,192,6.0,14.0,89,0.00,,---,0.19,VWS V14.01,2013-01-11 05:39:00,
2013-01-10 23:41:00,64.6,61.3,30.06,SE,131,9.0,14.0,89,0.00,,---,0.19,VWS V14.01,2013-01-11 05:41:00,
2013-01-10 23:43:00,64.6,61.3,30.06,South,176,7.0,14.0,89,0.00,,---,0.19,VWS V14.01,2013-01-11 05:43:00,
2013-01-10 23:44:00,64.6,61.3,30.07,South,175,10.0,14.0,89,0.00,,---,0.19,VWS V14.01,2013-01-11 05:44:00,
2013-01-10 23:47:00,64.6,61.3,30.07,South,171,7.0,14.0,89,0.00,,---,0.19,VWS V14.01,2013-01-11 05:47:00,
2013-01-10 23:49:00,64.7,61.4,30.07,SSE,155,9.0,17.0,89,0.00,,---,0.19,VWS V14.01,2013-01-11 05:49:00,
2013-01-10 23:52:00,64.7,61.4,30.07,SSE,157,10.0,17.0,89,0.00,,---,0.19,VWS V14.01,2013-01-11 05:52:00,
2013-01-10 23:54:00,64.7,61.4,30.07,SE,135,5.0,17.0,89,0.00,,---,0.19,VWS V14.01,2013-01-11 05:54:00,
2013-01-10 23:57:00,64.7,61.4,30.07,South,172,6.0,17.0,89,0.00,,---,0.19,VWS V14.01,2013-01-11 05:57:00,
2013-01-10 23:59:00,64.7,61.4,30.06,SSE,163,9.0,17.0,89,0.00,,---,0.19,VWS V14.01,2013-01-11 05:59:00,